Time,TemperatureF,DewpointF,PressureIn,WindDirection,WindDirectionDegrees,WindSpeedMPH,WindSpeedGustMPH,Humidity,HourlyPrecipIn,Conditions,Clouds,dailyrainin,SoftwareType,DateUTC
2013-02-03 00:01:00,29.1,24.9,30.17,WNW,291,0.0,9.0,84,0.00,,,0.00,Wunderground v.1.15,2013-02-03 05:01:00,
2013-02-03 00:03:00,29.1,24.9,30.17,WNW,291,0.0,9.0,84,0.00,,,0.00,Wunderground v.1.15,2013-02-03 05:03:00,
2013-02-03 00:04:00,29.1,24.9,30.17,WNW,291,0.0,9.0,84,0.00,,,0.00,Wunderground v.1.15,2013-02-03 05:04:00,
2013-02-03 00:05:00,29.1,24.9,30.18,WNW,291,0.0,9.0,84,0.00,,,0.00,Wunderground v.1.15,2013-02-03 05:05:00,
2013-02-03 00:09:00,29.0,24.8,30.18,WNW,291,0.0,9.0,84,0.00,,,0.00,Wunderground v.1.15,2013-02-03 05:09:00,
2013-02-03 00:10:00,29.0,24.8,30.17,WNW,291,0.0,9.0,84,0.00,,,0.00,Wunderground v.1.15,2013-02-03 05:10:00,
2013-02-03 00:11:00,29.0,25.1,30.18,WNW,291,0.0,9.0,85,0.00,,,0.00,Wunderground v.1.15,2013-02-03 05:11:00,
2013-02-03 00:12:00,29.0,25.1,30.18,WNW,291,0.0,9.0,85,0.00,,,0.00,Wunderground v.1.15,2013-02-03 05:12:00,
2013-02-03 00:16:00,28.9,25.0,30.18,WNW,291,0.0,9.0,85,0.00,,,0.00,Wunderground v.1.15,2013-02-03 05:16:00,
2013-02-03 00:17:00,28.9,25.0,30.18,WNW,291,0.0,9.0,85,0.00,,,0.00,Wunderground v.1.15,2013-02-03 05:17:00,
2013-02-03 00:18:00,28.9,25.0,30.18,WNW,291,0.0,9.0,85,0.00,,,0.00,Wunderground v.1.15,2013-02-03 05:18:00,
2013-02-03 00:23:00,28.9,25.0,30.18,WNW,291,0.0,9.0,85,0.00,,,0.00,Wunderground v.1.15,2013-02-03 05:23:00,
2013-02-03 00:24:00,28.9,25.0,30.18,WNW,291,0.0,9.0,85,0.00,,,0.00,Wunderground v.1.15,2013-02-03 05:24:00,
2013-02-03 00:25:00,28.9,25.0,30.18,WNW,291,0.0,9.0,85,0.00,,,0.00,Wunderground v.1.15,2013-02-03 05:25:00,
2013-02-03 00:28:00,28.9,25.0,30.17,WNW,291,0.0,9.0,85,0.00,,,0.00,Wunderground v.1.15,2013-02-03 05:28:00,
2013-02-03 00:30:00,28.9,25.0,30.17,WNW,289,0.0,9.0,85,0.00,,,0.00,Wunderground v.1.15,2013-02-03 05:30:00,
2013-02-03 00:31:00,28.9,25.0,30.17,WNW,284,0.0,9.0,85,0.00,,,0.00,Wunderground v.1.15,2013-02-03 05:31:00,
2013-02-03 00:32:00,28.9,25.0,30.17,WNW,284,0.0,9.0,85,0.00,,,0.00,Wunderground v.1.15,2013-02-03 05:32:00,
2013-02-03 00:36:00,28.9,25.0,30.17,WNW,284,0.0,9.0,85,0.00,,,0.00,Wunderground v.1.15,2013-02-03 05:36:00,
2013-02-03 00:37:00,29.0,25.1,30.17,WNW,284,0.0,9.0,85,0.00,,,0.00,Wunderground v.1.15,2013-02-03 05:37:00,
2013-02-03 00:42:00,29.0,25.1,30.17,WNW,284,0.0,9.0,85,0.00,,,0.00,Wunderground v.1.15,2013-02-03 05:42:00,
2013-02-03 00:43:00,29.0,25.1,30.17,WNW,284,0.0,9.0,85,0.00,,,0.00,Wunderground v.1.15,2013-02-03 05:43:00,
2013-02-03 00:44:00,29.0,25.1,30.17,WNW,284,0.0,9.0,85,0.00,,,0.00,Wunderground v.1.15,2013-02-03 05:44:00,
2013-02-03 00:47:00,29.0,25.1,30.17,WNW,284,0.0,9.0,85,0.00,,,0.00,Wunderground v.1.15,2013-02-03 05:47:00,
2013-02-03 00:48:00,29.0,25.1,30.17,WNW,284,0.0,9.0,85,0.00,,,0.00,Wunderground v.1.15,2013-02-03 05:48:00,
2013-02-03 00:52:00,28.9,25.0,30.17,West,279,0.0,9.0,85,0.00,,,0.00,Wunderground v.1.15,2013-02-03 05:52:00,
2013-02-03 00:53:00,28.9,25.0,30.17,West,279,0.0,9.0,85,0.00,,,0.00,Wunderground v.1.15,2013-02-03 05:53:00,
2013-02-03 00:54:00,28.9,25.0,30.17,West,277,0.0,9.0,85,0.00,,,0.00,Wunderground v.1.15,2013-02-03 05:54:00,
2013-02-03 00:58:00,28.9,25.0,30.17,West,277,0.0,9.0,85,0.00,,,0.00,Wunderground v.1.15,2013-02-03 05:58:00,
2013-02-03 00:59:00,28.9,25.0,30.17,West,277,0.0,9.0,85,0.00,,,0.00,Wunderground v.1.15,2013-02-03 05:59:00,
2013-02-03 01:01:00,28.9,25.0,30.17,West,277,0.0,9.0,85,0.00,,,0.00,Wunderground v.1.15,2013-02-03 06:01:00,
2013-02-03 01:04:00,28.9,25.0,30.16,WSW,242,0.0,9.0,85,0.00,,,0.00,Wunderground v.1.15,2013-02-03 06:04:00,
2013-02-03 01:06:00,28.9,25.0,30.16,WSW,242,0.0,9.0,85,0.00,,,0.00,Wunderground v.1.15,2013-02-03 06:06:00,
2013-02-03 01:07:00,28.9,25.0,30.16,WSW,242,0.0,9.0,85,0.00,,,0.00,Wunderground v.1.15,2013-02-03 06:07:00,
2013-02-03 01:12:00,28.9,25.0,30.16,WSW,242,0.0,9.0,85,0.00,,,0.00,Wunderground v.1.15,2013-02-03 06:12:00,
2013-02-03 01:13:00,28.9,25.0,30.16,WSW,242,0.0,9.0,85,0.00,,,0.00,Wunderground v.1.15,2013-02-03 06:13:00,
2013-02-03 01:18:00,28.8,24.9,30.16,WSW,242,0.0,9.0,85,0.00,,,0.00,Wunderground v.1.15,2013-02-03 06:18:00,
2013-02-03 01:19:00,28.8,24.9,30.16,WSW,242,0.0,9.0,85,0.00,,,0.00,Wunderground v.1.15,2013-02-03 06:19:00,
2013-02-03 01:23:00,28.8,24.9,30.16,WSW,242,0.0,9.0,85,0.00,,,0.00,Wunderground v.1.15,2013-02-03 06:23:00,
2013-02-03 01:24:00,28.8,25.1,30.16,WSW,242,0.0,9.0,86,0.00,,,0.00,Wunderground v.1.15,2013-02-03 06:24:00,
2013-02-03 01:25:00,28.8,24.9,30.16,WSW,242,0.0,9.0,85,0.00,,,0.00,Wunderground v.1.15,2013-02-03 06:25:00,
2013-02-03 01:30:00,28.7,25.0,30.16,WSW,242,0.0,9.0,86,0.00,,,0.00,Wunderground v.1.15,2013-02-03 06:30:00,
2013-02-03 01:31:00,28.7,25.0,30.16,WSW,242,0.0,9.0,86,0.00,,,0.00,Wunderground v.1.15,2013-02-03 06:31:00,
2013-02-03 01:32:00,28.7,25.0,30.16,WSW,242,0.0,9.0,86,0.00,,,0.00,Wunderground v.1.15,2013-02-03 06:32:00,
2013-02-03 01:36:00,28.5,25.1,30.16,WSW,242,0.0,9.0,87,0.00,,,0.00,Wunderground v.1.15,2013-02-03 06:36:00,
2013-02-03 01:37:00,28.5,25.1,30.16,WSW,242,0.0,9.0,87,0.00,,,0.00,Wunderground v.1.15,2013-02-03 06:37:00,
2013-02-03 01:38:00,28.5,25.1,30.16,WSW,242,0.0,9.0,87,0.00,,,0.00,Wunderground v.1.15,2013-02-03 06:38:00,
2013-02-03 01:42:00,28.5,25.1,30.16,WSW,242,0.0,9.0,87,0.00,,,0.00,Wunderground v.1.15,2013-02-03 06:42:00,
2013-02-03 01:43:00,28.5,25.1,30.15,WSW,242,1.0,9.0,87,0.00,,,0.00,Wunderground v.1.15,2013-02-03 06:43:00,
2013-02-03 01:46:00,28.5,25.1,30.15,WSW,242,1.0,9.0,87,0.00,,,0.00,Wunderground v.1.15,2013-02-03 06:46:00,
2013-02-03 01:48:00,28.5,25.1,30.15,WSW,242,1.0,9.0,87,0.00,,,0.00,Wunderground v.1.15,2013-02-03 06:48:00,
2013-02-03 01:49:00,28.5,25.1,30.15,WSW,257,1.0,9.0,87,0.00,,,0.00,Wunderground v.1.15,2013-02-03 06:49:00,
2013-02-03 01:53:00,28.5,25.1,30.15,WSW,238,1.0,9.0,87,0.00,,,0.00,Wunderground v.1.15,2013-02-03 06:53:00,
2013-02-03 01:54:00,28.5,25.1,30.15,WSW,238,1.0,9.0,87,0.00,,,0.00,Wunderground v.1.15,2013-02-03 06:54:00,
2013-02-03 01:55:00,28.5,25.4,30.15,WSW,238,1.0,9.0,88,0.00,,,0.00,Wunderground v.1.15,2013-02-03 06:55:00,
2013-02-03 01:57:00,28.5,25.1,30.15,WSW,238,1.0,9.0,87,0.00,,,0.00,Wunderground v.1.15,2013-02-03 06:57:00,
2013-02-03 01:59:00,28.4,25.3,30.15,SW,234,1.0,9.0,88,0.00,,,0.00,Wunderground v.1.15,2013-02-03 06:59:00,
2013-02-03 02:01:00,28.4,25.3,30.14,West,265,1.0,9.0,88,0.00,,,0.00,Wunderground v.1.15,2013-02-03 07:01:00,
2013-02-03 02:04:00,28.3,25.2,30.14,West,261,1.0,9.0,88,0.00,,,0.00,Wunderground v.1.15,2013-02-03 07:04:00,
2013-02-03 02:07:00,28.3,25.2,30.14,WSW,252,1.0,9.0,88,0.00,,,0.00,Wunderground v.1.15,2013-02-03 07:07:00,
2013-02-03 02:08:00,28.3,25.2,30.14,West,260,1.0,9.0,88,0.00,,,0.00,Wunderground v.1.15,2013-02-03 07:08:00,
2013-02-03 02:09:00,28.4,25.3,30.14,WSW,257,1.0,9.0,88,0.00,,,0.00,Wunderground v.1.15,2013-02-03 07:09:00,
2013-02-03 02:13:00,28.4,25.3,30.15,WSW,248,1.0,9.0,88,0.00,,,0.00,Wunderground v.1.15,2013-02-03 07:13:00,
2013-02-03 02:14:00,28.4,25.3,30.15,WSW,246,1.0,9.0,88,0.00,,,0.00,Wunderground v.1.15,2013-02-03 07:14:00,
2013-02-03 02:16:00,28.5,25.4,30.15,WSW,244,1.0,9.0,88,0.00,,,0.00,Wunderground v.1.15,2013-02-03 07:16:00,
2013-02-03 02:17:00,28.5,25.4,30.15,WSW,244,1.0,9.0,88,0.00,,,0.00,Wunderground v.1.15,2013-02-03 07:17:00,
2013-02-03 02:19:00,28.5,25.4,30.14,WSW,244,0.0,9.0,88,0.00,,,0.00,Wunderground v.1.15,2013-02-03 07:19:00,
2013-02-03 02:21:00,28.5,25.4,30.14,WSW,244,0.0,9.0,88,0.00,,,0.00,Wunderground v.1.15,2013-02-03 07:21:00,
2013-02-03 02:25:00,28.5,25.4,30.14,West,267,0.0,9.0,88,0.00,,,0.00,Wunderground v.1.15,2013-02-03 07:25:00,
2013-02-03 02:26:00,28.5,25.4,30.14,West,267,0.0,9.0,88,0.00,,,0.00,Wunderground v.1.15,2013-02-03 07:26:00,
2013-02-03 02:27:00,28.5,25.4,30.14,West,275,0.0,9.0,88,0.00,,,0.00,Wunderground v.1.15,2013-02-03 07:27:00,
2013-02-03 02:28:00,28.5,25.4,30.14,West,275,0.0,9.0,88,0.00,,,0.00,Wunderground v.1.15,2013-02-03 07:28:00,
2013-02-03 02:31:00,28.5,25.4,30.14,West,274,0.0,9.0,88,0.00,,,0.00,Wunderground v.1.15,2013-02-03 07:31:00,
2013-02-03 02:33:00,28.5,25.4,30.14,West,275,0.0,9.0,88,0.00,,,0.00,Wunderground v.1.15,2013-02-03 07:33:00,
2013-02-03 02:35:00,28.5,25.4,30.14,West,275,0.0,9.0,88,0.00,,,0.00,Wunderground v.1.15,2013-02-03 07:35:00,
2013-02-03 02:36:00,28.5,25.4,30.14,West,275,0.0,9.0,88,0.00,,,0.00,Wunderground v.1.15,2013-02-03 07:36:00,
2013-02-03 02:37:00,28.5,25.4,30.14,West,275,0.0,9.0,88,0.00,,,0.00,Wunderground v.1.15,2013-02-03 07:37:00,
2013-02-03 02:42:00,28.7,25.6,30.14,West,279,0.0,9.0,88,0.00,,,0.00,Wunderground v.1.15,2013-02-03 07:42:00,
2013-02-03 02:44:00,28.7,25.6,30.14,West,279,0.0,9.0,88,0.00,,,0.00,Wunderground v.1.15,2013-02-03 07:44:00,
2013-02-03 02:45:00,28.7,25.6,30.14,West,279,0.0,9.0,88,0.00,,,0.00,Wunderground v.1.15,2013-02-03 07:45:00,
2013-02-03 02:46:00,28.7,25.6,30.14,West,279,0.0,9.0,88,0.00,,,0.00,Wunderground v.1.15,2013-02-03 07:46:00,
2013-02-03 02:49:00,28.7,25.6,30.14,West,265,0.0,9.0,88,0.00,,,0.00,Wunderground v.1.15,2013-02-03 07:49:00,
2013-02-03 02:51:00,28.7,25.6,30.14,WNW,292,0.0,9.0,88,0.00,,,0.00,Wunderground v.1.15,2013-02-03 07:51:00,
2013-02-03 02:53:00,28.7,25.6,30.14,WNW,286,0.0,9.0,88,0.00,,,0.00,Wunderground v.1.15,2013-02-03 07:53:00,
2013-02-03 02:55:00,28.7,25.6,30.13,West,269,0.0,9.0,88,0.00,,,0.00,Wunderground v.1.15,2013-02-03 07:55:00,
2013-02-03 02:59:00,28.7,25.6,30.13,WSW,244,0.0,9.0,88,0.00,,,0.00,Wunderground v.1.15,2013-02-03 07:59:00,
2013-02-03 03:01:00,28.7,25.9,30.13,West,259,0.0,9.0,89,0.00,,,0.00,Wunderground v.1.15,2013-02-03 08:01:00,
2013-02-03 03:04:00,28.8,26.0,30.13,West,270,1.0,9.0,89,0.00,,,0.00,Wunderground v.1.15,2013-02-03 08:04:00,
2013-02-03 03:06:00,28.8,26.0,30.13,West,266,1.0,9.0,89,0.00,,,0.00,Wunderground v.1.15,2013-02-03 08:06:00,
2013-02-03 03:07:00,28.9,26.1,30.13,WNW,288,1.0,9.0,89,0.00,,,0.00,Wunderground v.1.15,2013-02-03 08:07:00,
2013-02-03 03:08:00,28.9,26.1,30.13,WNW,288,1.0,9.0,89,0.00,,,0.00,Wunderground v.1.15,2013-02-03 08:08:00,
2013-02-03 03:10:00,28.8,26.0,30.13,WNW,288,1.0,9.0,89,0.00,,,0.00,Wunderground v.1.15,2013-02-03 08:10:00,
2013-02-03 03:13:00,28.8,26.0,30.13,West,276,1.0,9.0,89,0.00,,,0.00,Wunderground v.1.15,2013-02-03 08:13:00,
2013-02-03 03:15:00,28.8,26.0,30.13,WNW,287,1.0,9.0,89,0.00,,,0.00,Wunderground v.1.15,2013-02-03 08:15:00,
2013-02-03 03:17:00,28.8,26.0,30.13,West,276,1.0,9.0,89,0.00,,,0.00,Wunderground v.1.15,2013-02-03 08:17:00,
2013-02-03 03:19:00,28.8,26.0,30.12,WNW,300,1.0,9.0,89,0.00,,,0.00,Wunderground v.1.15,2013-02-03 08:19:00,
2013-02-03 03:20:00,28.8,26.0,30.12,WNW,298,1.0,9.0,89,0.00,,,0.00,Wunderground v.1.15,2013-02-03 08:20:00,
2013-02-03 03:21:00,28.8,26.0,30.12,WNW,287,1.0,9.0,89,0.00,,,0.00,Wunderground v.1.15,2013-02-03 08:21:00,
2013-02-03 03:26:00,28.9,26.1,30.12,WNW,291,1.0,9.0,89,0.00,,,0.00,Wunderground v.1.15,2013-02-03 08:26:00,
2013-02-03 03:27:00,28.9,26.1,30.12,NW,304,1.0,9.0,89,0.00,,,0.00,Wunderground v.1.15,2013-02-03 08:27:00,
2013-02-03 03:30:00,28.9,26.1,30.12,WNW,293,1.0,9.0,89,0.00,,,0.00,Wunderground v.1.15,2013-02-03 08:30:00,
2013-02-03 03:32:00,28.9,26.1,30.12,West,268,1.0,2.0,89,0.00,,,0.00,Wunderground v.1.15,2013-02-03 08:32:00,
2013-02-03 03:33:00,29.0,26.2,30.12,West,259,1.0,5.0,89,0.00,,,0.00,Wunderground v.1.15,2013-02-03 08:33:00,
2013-02-03 03:36:00,29.1,26.3,30.12,WNW,290,2.0,9.0,89,0.00,,,0.00,Wunderground v.1.15,2013-02-03 08:36:00,
2013-02-03 03:37:00,29.1,26.3,30.11,WNW,286,2.0,9.0,89,0.00,,,0.00,Wunderground v.1.15,2013-02-03 08:37:00,
2013-02-03 03:38:00,29.1,26.3,30.11,WNW,292,2.0,9.0,89,0.00,,,0.00,Wunderground v.1.15,2013-02-03 08:38:00,
2013-02-03 03:39:00,29.1,26.3,30.11,WNW,286,2.0,9.0,89,0.00,,,0.00,Wunderground v.1.15,2013-02-03 08:39:00,
2013-02-03 03:43:00,29.1,26.3,30.11,NW,304,2.0,9.0,89,0.00,,,0.00,Wunderground v.1.15,2013-02-03 08:43:00,
2013-02-03 03:44:00,29.1,26.3,30.11,NW,305,2.0,9.0,89,0.00,,,0.00,Wunderground v.1.15,2013-02-03 08:44:00,
2013-02-03 03:47:00,29.1,26.3,30.11,WNW,298,2.0,9.0,89,0.00,,,0.00,Wunderground v.1.15,2013-02-03 08:47:00,
2013-02-03 03:48:00,29.1,26.3,30.11,West,281,2.0,9.0,89,0.00,,,0.00,Wunderground v.1.15,2013-02-03 08:48:00,
2013-02-03 03:51:00,29.1,26.3,30.11,WNW,288,2.0,9.0,89,0.00,,,0.00,Wunderground v.1.15,2013-02-03 08:51:00,
2013-02-03 03:54:00,29.2,26.4,30.11,NW,306,3.0,9.0,89,0.00,,,0.00,Wunderground v.1.15,2013-02-03 08:54:00,
2013-02-03 03:55:00,29.1,26.3,30.11,WNW,292,2.0,9.0,89,0.00,,,0.00,Wunderground v.1.15,2013-02-03 08:55:00,
2013-02-03 03:58:00,29.2,26.4,30.11,WNW,294,3.0,9.0,89,0.00,,,0.00,Wunderground v.1.15,2013-02-03 08:58:00,
2013-02-03 03:59:00,29.2,26.4,30.11,WNW,290,3.0,9.0,89,0.00,,,0.00,Wunderground v.1.15,2013-02-03 08:59:00,
2013-02-03 04:01:00,29.2,26.4,30.11,WNW,291,3.0,9.0,89,0.00,,,0.00,Wunderground v.1.15,2013-02-03 09:01:00,
2013-02-03 04:04:00,29.3,26.5,30.11,WNW,288,4.0,9.0,89,0.00,,,0.00,Wunderground v.1.15,2013-02-03 09:04:00,
2013-02-03 04:05:00,29.3,26.5,30.10,WNW,290,4.0,9.0,89,0.00,,,0.00,Wunderground v.1.15,2013-02-03 09:05:00,
2013-02-03 04:06:00,29.3,26.5,30.10,NW,305,4.0,9.0,89,0.00,,,0.00,Wunderground v.1.15,2013-02-03 09:06:00,
2013-02-03 04:08:00,29.4,26.6,30.10,NW,307,4.0,9.0,89,0.00,,,0.00,Wunderground v.1.15,2013-02-03 09:08:00,
2013-02-03 04:11:00,29.4,26.3,30.10,WNW,301,4.0,9.0,88,0.00,,,0.00,Wunderground v.1.15,2013-02-03 09:11:00,
2013-02-03 04:13:00,29.5,26.4,30.10,WNW,301,4.0,9.0,88,0.00,,,0.00,Wunderground v.1.15,2013-02-03 09:13:00,
2013-02-03 04:14:00,29.5,26.4,30.10,NW,308,4.0,9.0,88,0.00,,,0.00,Wunderground v.1.15,2013-02-03 09:14:00,
2013-02-03 04:16:00,29.5,26.4,30.10,WNW,294,4.0,9.0,88,0.00,,,0.00,Wunderground v.1.15,2013-02-03 09:16:00,
2013-02-03 04:19:00,29.7,26.3,30.10,WNW,291,4.0,9.0,87,0.00,,,0.00,Wunderground v.1.15,2013-02-03 09:19:00,
2013-02-03 04:23:00,29.8,26.1,30.10,NW,312,5.0,9.0,86,0.00,,,0.00,Wunderground v.1.15,2013-02-03 09:23:00,
2013-02-03 04:24:00,29.8,26.1,30.10,NW,313,5.0,9.0,86,0.00,,,0.00,Wunderground v.1.15,2013-02-03 09:24:00,
2013-02-03 04:25:00,29.8,26.1,30.10,WNW,300,5.0,9.0,86,0.00,,,0.00,Wunderground v.1.15,2013-02-03 09:25:00,
2013-02-03 04:28:00,29.8,26.1,30.10,NW,309,4.0,9.0,86,0.00,,,0.00,Wunderground v.1.15,2013-02-03 09:28:00,
2013-02-03 04:32:00,29.8,25.8,30.10,WNW,300,4.0,9.0,85,0.00,,,0.00,Wunderground v.1.15,2013-02-03 09:32:00,
2013-02-03 04:35:00,29.7,26.0,30.09,West,279,3.0,9.0,86,0.00,,,0.00,Wunderground v.1.15,2013-02-03 09:35:00,
2013-02-03 04:36:00,29.7,26.0,30.09,NW,304,3.0,9.0,86,0.00,,,0.00,Wunderground v.1.15,2013-02-03 09:36:00,
2013-02-03 04:37:00,29.6,25.9,30.10,WNW,296,3.0,9.0,86,0.00,,,0.00,Wunderground v.1.15,2013-02-03 09:37:00,
2013-02-03 04:40:00,29.6,25.9,30.10,WNW,300,3.0,9.0,86,0.00,,,0.00,Wunderground v.1.15,2013-02-03 09:40:00,
2013-02-03 04:41:00,29.6,25.9,30.10,SW,214,3.0,9.0,86,0.00,,,0.00,Wunderground v.1.15,2013-02-03 09:41:00,
2013-02-03 04:46:00,29.7,25.7,30.09,NW,304,4.0,9.0,85,0.00,,,0.00,Wunderground v.1.15,2013-02-03 09:46:00,
2013-02-03 04:47:00,29.7,25.5,30.09,NW,311,4.0,9.0,84,0.00,,,0.00,Wunderground v.1.15,2013-02-03 09:47:00,
2013-02-03 04:48:00,29.7,25.5,30.09,NW,320,5.0,9.0,84,0.00,,,0.00,Wunderground v.1.15,2013-02-03 09:48:00,
2013-02-03 04:52:00,29.8,25.3,30.09,NW,307,5.0,9.0,83,0.00,,,0.00,Wunderground v.1.15,2013-02-03 09:52:00,
2013-02-03 04:53:00,29.8,25.3,30.09,NNW,338,6.0,9.0,83,0.00,,,0.00,Wunderground v.1.15,2013-02-03 09:53:00,
2013-02-03 04:57:00,29.8,25.3,30.09,NW,309,5.0,9.0,83,0.00,,,0.00,Wunderground v.1.15,2013-02-03 09:57:00,
2013-02-03 04:58:00,29.8,25.3,30.09,NW,315,5.0,9.0,83,0.00,,,0.00,Wunderground v.1.15,2013-02-03 09:58:00,
2013-02-03 05:03:00,29.7,24.9,30.09,NW,308,5.0,9.0,82,0.00,,,0.00,Wunderground v.1.15,2013-02-03 10:03:00,
2013-02-03 05:04:00,29.7,24.9,30.09,WNW,298,5.0,9.0,82,0.00,,,0.00,Wunderground v.1.15,2013-02-03 10:04:00,
2013-02-03 05:07:00,29.7,24.9,30.08,West,281,5.0,9.0,82,0.00,,,0.00,Wunderground v.1.15,2013-02-03 10:07:00,
2013-02-03 05:09:00,29.7,24.9,30.08,NW,306,4.0,9.0,82,0.00,,,0.00,Wunderground v.1.15,2013-02-03 10:09:00,
2013-02-03 05:10:00,29.7,24.9,30.08,WNW,300,4.0,9.0,82,0.00,,,0.00,Wunderground v.1.15,2013-02-03 10:10:00,
2013-02-03 05:13:00,29.6,24.8,30.08,WNW,300,4.0,9.0,82,0.00,,,0.00,Wunderground v.1.15,2013-02-03 10:13:00,
2013-02-03 05:15:00,29.6,24.8,30.08,NW,325,4.0,9.0,82,0.00,,,0.00,Wunderground v.1.15,2013-02-03 10:15:00,
2013-02-03 05:20:00,29.6,24.8,30.08,West,269,5.0,9.0,82,0.00,,,0.00,Wunderground v.1.15,2013-02-03 10:20:00,
2013-02-03 05:21:00,29.7,25.2,30.08,NW,320,5.0,9.0,83,0.00,,,0.00,Wunderground v.1.15,2013-02-03 10:21:00,
2013-02-03 05:23:00,29.6,25.1,30.09,NW,322,5.0,9.0,83,0.00,,,0.00,Wunderground v.1.15,2013-02-03 10:23:00,
2013-02-03 05:25:00,29.6,25.1,30.09,NW,305,5.0,9.0,83,0.00,,,0.00,Wunderground v.1.15,2013-02-03 10:25:00,
2013-02-03 05:27:00,29.6,25.1,30.08,WNW,302,5.0,9.0,83,0.00,,,0.00,Wunderground v.1.15,2013-02-03 10:27:00,
2013-02-03 05:30:00,29.6,25.1,30.08,NW,309,5.0,9.0,83,0.00,,,0.00,Wunderground v.1.15,2013-02-03 10:30:00,
2013-02-03 05:33:00,29.5,25.0,30.08,NW,313,5.0,9.0,83,0.00,,,0.00,Wunderground v.1.15,2013-02-03 10:33:00,
2013-02-03 05:35:00,29.5,25.0,30.08,West,276,4.0,9.0,83,0.00,,,0.00,Wunderground v.1.15,2013-02-03 10:35:00,
2013-02-03 05:36:00,29.5,25.0,30.08,WNW,300,4.0,9.0,83,0.00,,,0.00,Wunderground v.1.15,2013-02-03 10:36:00,
2013-02-03 05:39:00,29.5,25.0,30.08,WNW,300,4.0,9.0,83,0.00,,,0.00,Wunderground v.1.15,2013-02-03 10:39:00,
2013-02-03 05:43:00,29.4,25.2,30.08,WNW,302,3.0,9.0,84,0.00,,,0.00,Wunderground v.1.15,2013-02-03 10:43:00,
2013-02-03 05:44:00,29.4,25.2,30.08,NW,310,3.0,9.0,84,0.00,,,0.00,Wunderground v.1.15,2013-02-03 10:44:00,
2013-02-03 05:45:00,29.4,25.2,30.08,West,278,3.0,9.0,84,0.00,,,0.00,Wunderground v.1.15,2013-02-03 10:45:00,
2013-02-03 05:50:00,29.4,25.2,30.08,NW,316,4.0,9.0,84,0.00,,,0.00,Wunderground v.1.15,2013-02-03 10:50:00,
2013-02-03 05:51:00,29.4,25.4,30.08,WNW,295,4.0,4.0,85,0.00,,,0.00,Wunderground v.1.15,2013-02-03 10:51:00,
2013-02-03 05:52:00,29.4,25.2,30.08,NW,315,4.0,5.0,84,0.00,,,0.00,Wunderground v.1.15,2013-02-03 10:52:00,
2013-02-03 05:54:00,29.3,25.4,30.08,NW,312,5.0,9.0,85,0.00,,,0.00,Wunderground v.1.15,2013-02-03 10:54:00,
2013-02-03 05:56:00,29.3,25.4,30.08,NW,313,4.0,9.0,85,0.00,,,0.00,Wunderground v.1.15,2013-02-03 10:56:00,
2013-02-03 05:58:00,29.3,25.4,30.08,NW,309,4.0,9.0,85,0.00,,,0.00,Wunderground v.1.15,2013-02-03 10:58:00,
2013-02-03 06:02:00,29.3,25.4,30.08,NW,314,3.0,9.0,85,0.00,,,0.00,Wunderground v.1.15,2013-02-03 11:02:00,
2013-02-03 06:03:00,29.3,25.4,30.08,WNW,301,3.0,9.0,85,0.00,,,0.00,Wunderground v.1.15,2013-02-03 11:03:00,
2013-02-03 06:04:00,29.3,25.4,30.08,WNW,298,3.0,9.0,85,0.00,,,0.00,Wunderground v.1.15,2013-02-03 11:04:00,
2013-02-03 06:08:00,29.2,25.3,30.08,WNW,284,3.0,9.0,85,0.00,,,0.00,Wunderground v.1.15,2013-02-03 11:08:00,
2013-02-03 06:09:00,29.2,25.3,30.08,WNW,285,3.0,9.0,85,0.00,,,0.00,Wunderground v.1.15,2013-02-03 11:09:00,
2013-02-03 06:11:00,29.2,25.3,30.08,NW,314,3.0,9.0,85,0.00,,,0.00,Wunderground v.1.15,2013-02-03 11:11:00,
2013-02-03 06:14:00,29.2,25.3,30.08,WNW,301,2.0,9.0,85,0.00,,,0.00,Wunderground v.1.15,2013-02-03 11:14:00,
2013-02-03 06:16:00,29.2,25.3,30.08,NW,319,3.0,9.0,85,0.00,,,0.00,Wunderground v.1.15,2013-02-03 11:16:00,
2013-02-03 06:19:00,29.2,25.3,30.08,NW,314,3.0,9.0,85,0.00,,,0.00,Wunderground v.1.15,2013-02-03 11:19:00,
2013-02-03 06:20:00,29.2,25.3,30.08,NW,309,4.0,9.0,85,0.00,,,0.00,Wunderground v.1.15,2013-02-03 11:20:00,
2013-02-03 06:21:00,29.2,25.3,30.08,NW,306,4.0,9.0,85,0.00,,,0.00,Wunderground v.1.15,2013-02-03 11:21:00,
2013-02-03 06:23:00,29.2,25.3,30.08,NW,304,4.0,9.0,85,0.00,,,0.00,Wunderground v.1.15,2013-02-03 11:23:00,
2013-02-03 06:25:00,29.3,25.1,30.08,NW,319,5.0,9.0,84,0.00,,,0.00,Wunderground v.1.15,2013-02-03 11:25:00,
2013-02-03 06:28:00,29.3,25.1,30.08,NW,312,5.0,9.0,84,0.00,,,0.00,Wunderground v.1.15,2013-02-03 11:28:00,
2013-02-03 06:30:00,29.2,25.0,30.08,NW,316,4.0,9.0,84,0.00,,,0.00,Wunderground v.1.15,2013-02-03 11:30:00,
2013-02-03 06:33:00,29.2,25.3,30.07,WNW,294,3.0,9.0,85,0.00,,,0.00,Wunderground v.1.15,2013-02-03 11:33:00,
2013-02-03 06:35:00,29.1,25.2,30.07,WNW,296,3.0,9.0,85,0.00,,,0.00,Wunderground v.1.15,2013-02-03 11:35:00,
2013-02-03 06:39:00,29.1,24.9,30.07,NW,305,2.0,9.0,84,0.00,,,0.00,Wunderground v.1.15,2013-02-03 11:39:00,
2013-02-03 06:40:00,29.2,25.0,30.07,NW,311,2.0,9.0,84,0.00,,,0.00,Wunderground v.1.15,2013-02-03 11:40:00,
2013-02-03 06:43:00,29.1,25.2,30.07,WNW,300,3.0,9.0,85,0.00,,,0.00,Wunderground v.1.15,2013-02-03 11:43:00,
2013-02-03 06:49:00,29.0,25.1,30.07,WNW,302,2.0,9.0,85,0.00,,,0.00,Wunderground v.1.15,2013-02-03 11:49:00,
2013-02-03 06:50:00,29.0,25.1,30.07,WNW,298,2.0,9.0,85,0.00,,,0.00,Wunderground v.1.15,2013-02-03 11:50:00,
2013-02-03 06:51:00,29.0,25.1,30.07,NW,304,2.0,2.0,85,0.00,,,0.00,Wunderground v.1.15,2013-02-03 11:51:00,
2013-02-03 06:52:00,29.0,25.1,30.07,NW,311,2.0,9.0,85,0.00,,,0.00,Wunderground v.1.15,2013-02-03 11:52:00,
2013-02-03 06:57:00,29.0,25.1,30.07,NW,304,2.0,9.0,85,0.00,,,0.00,Wunderground v.1.15,2013-02-03 11:57:00,
2013-02-03 06:58:00,29.0,25.1,30.07,WNW,296,2.0,9.0,85,0.00,,,0.00,Wunderground v.1.15,2013-02-03 11:58:00,
2013-02-03 07:01:00,29.0,25.1,30.07,NW,309,1.0,1.0,85,0.00,,,0.00,Wunderground v.1.15,2013-02-03 12:01:00,
2013-02-03 07:03:00,29.0,25.1,30.07,NW,309,1.0,9.0,85,0.00,,,0.00,Wunderground v.1.15,2013-02-03 12:03:00,
2013-02-03 07:04:00,29.0,25.1,30.07,NW,309,1.0,9.0,85,0.00,,,0.00,Wunderground v.1.15,2013-02-03 12:04:00,
2013-02-03 07:07:00,28.9,25.0,30.07,NW,312,1.0,9.0,85,0.00,,,0.00,Wunderground v.1.15,2013-02-03 12:07:00,
2013-02-03 07:09:00,28.9,25.0,30.07,NW,309,1.0,9.0,85,0.00,,,0.00,Wunderground v.1.15,2013-02-03 12:09:00,
2013-02-03 07:10:00,28.9,25.0,30.07,NW,306,1.0,9.0,85,0.00,,,0.00,Wunderground v.1.15,2013-02-03 12:10:00,
2013-02-03 07:11:00,28.9,25.0,30.08,NW,314,1.0,9.0,85,0.00,,,0.00,Wunderground v.1.15,2013-02-03 12:11:00,
2013-02-03 07:14:00,28.9,25.0,30.08,NW,311,1.0,9.0,85,0.00,,,0.00,Wunderground v.1.15,2013-02-03 12:14:00,
2013-02-03 07:16:00,28.9,25.0,30.07,WNW,292,2.0,9.0,85,0.00,,,0.00,Wunderground v.1.15,2013-02-03 12:16:00,
2013-02-03 07:17:00,28.9,25.0,30.07,WNW,292,1.0,9.0,85,0.00,,,0.00,Wunderground v.1.15,2013-02-03 12:17:00,
2013-02-03 07:20:00,28.9,25.0,30.07,NW,309,1.0,9.0,85,0.00,,,0.00,Wunderground v.1.15,2013-02-03 12:20:00,
2013-02-03 07:21:00,28.9,25.0,30.07,NW,309,1.0,1.0,85,0.00,,,0.00,Wunderground v.1.15,2013-02-03 12:21:00,
2013-02-03 07:22:00,28.9,25.0,30.07,WNW,298,1.0,5.0,85,0.00,,,0.00,Wunderground v.1.15,2013-02-03 12:22:00,
2013-02-03 07:25:00,28.9,25.0,30.07,WNW,300,1.0,9.0,85,0.00,,,0.00,Wunderground v.1.15,2013-02-03 12:25:00,
2013-02-03 07:27:00,28.9,25.0,30.07,NW,305,2.0,9.0,85,0.00,,,0.00,Wunderground v.1.15,2013-02-03 12:27:00,
2013-02-03 07:28:00,28.9,25.0,30.08,NW,311,2.0,9.0,85,0.00,,,0.00,Wunderground v.1.15,2013-02-03 12:28:00,
2013-02-03 07:30:00,28.9,25.0,30.08,NW,310,2.0,9.0,85,0.00,,,0.00,Wunderground v.1.15,2013-02-03 12:30:00,
2013-02-03 07:33:00,28.9,25.0,30.08,NW,313,1.0,9.0,85,0.00,,,0.00,Wunderground v.1.15,2013-02-03 12:33:00,
2013-02-03 07:35:00,28.9,25.0,30.08,NW,310,2.0,9.0,85,0.00,,,0.00,Wunderground v.1.15,2013-02-03 12:35:00,
2013-02-03 07:39:00,28.8,25.1,30.08,NW,313,1.0,9.0,86,0.00,,,0.00,Wunderground v.1.15,2013-02-03 12:39:00,
2013-02-03 07:40:00,28.8,25.1,30.08,NW,307,1.0,9.0,86,0.00,,,0.00,Wunderground v.1.15,2013-02-03 12:40:00,
2013-02-03 07:41:00,28.8,25.1,30.08,NW,307,2.0,9.0,86,0.00,,,0.00,Wunderground v.1.15,2013-02-03 12:41:00,
2013-02-03 07:45:00,28.8,25.1,30.08,NW,310,1.0,9.0,86,0.00,,,0.00,Wunderground v.1.15,2013-02-03 12:45:00,
2013-02-03 07:46:00,28.8,25.1,30.08,NW,309,1.0,9.0,86,0.00,,,0.00,Wunderground v.1.15,2013-02-03 12:46:00,
2013-02-03 07:49:00,28.8,25.1,30.08,NW,304,1.0,9.0,86,0.00,,,0.00,Wunderground v.1.15,2013-02-03 12:49:00,
2013-02-03 07:52:00,28.8,25.1,30.08,NW,304,1.0,9.0,86,0.00,,,0.00,Wunderground v.1.15,2013-02-03 12:52:00,
2013-02-03 07:54:00,28.8,25.1,30.08,NW,306,2.0,9.0,86,0.00,,,0.00,Wunderground v.1.15,2013-02-03 12:54:00,
2013-02-03 07:55:00,28.8,25.1,30.08,NW,311,2.0,9.0,86,0.00,,,0.00,Wunderground v.1.15,2013-02-03 12:55:00,
2013-02-03 07:58:00,28.8,25.4,30.08,NW,314,2.0,9.0,87,0.00,,,0.00,Wunderground v.1.15,2013-02-03 12:58:00,
2013-02-03 08:02:00,28.7,25.3,30.08,NNW,338,2.0,9.0,87,0.00,,,0.00,Wunderground v.1.15,2013-02-03 13:02:00,
2013-02-03 08:03:00,28.7,25.3,30.08,NW,317,2.0,9.0,87,0.00,,,0.00,Wunderground v.1.15,2013-02-03 13:03:00,
2013-02-03 08:04:00,28.7,25.3,30.08,WNW,303,2.0,9.0,87,0.00,,,0.00,Wunderground v.1.15,2013-02-03 13:04:00,
2013-02-03 08:09:00,28.7,25.3,30.08,NW,309,2.0,9.0,87,0.00,,,0.00,Wunderground v.1.15,2013-02-03 13:09:00,
2013-02-03 08:10:00,28.7,25.3,30.08,NW,321,2.0,9.0,87,0.00,,,0.00,Wunderground v.1.15,2013-02-03 13:10:00,
2013-02-03 08:14:00,28.7,25.3,30.09,WNW,303,2.0,9.0,87,0.00,,,0.00,Wunderground v.1.15,2013-02-03 13:14:00,
2013-02-03 08:15:00,28.7,25.3,30.09,West,271,2.0,9.0,87,0.00,,,0.00,Wunderground v.1.15,2013-02-03 13:15:00,
2013-02-03 08:19:00,28.7,25.3,30.08,WNW,300,2.0,9.0,87,0.00,,,0.00,Wunderground v.1.15,2013-02-03 13:19:00,
2013-02-03 08:20:00,28.7,25.3,30.08,NW,304,2.0,9.0,87,0.00,,,0.00,Wunderground v.1.15,2013-02-03 13:20:00,
2013-02-03 08:22:00,28.7,25.3,30.08,NW,313,2.0,9.0,87,0.00,,,0.00,Wunderground v.1.15,2013-02-03 13:22:00,
2013-02-03 08:24:00,28.7,25.3,30.08,NW,316,2.0,9.0,87,0.00,,,0.00,Wunderground v.1.15,2013-02-03 13:24:00,
2013-02-03 08:26:00,28.7,25.3,30.08,NNW,329,2.0,9.0,87,0.00,,,0.00,Wunderground v.1.15,2013-02-03 13:26:00,
2013-02-03 08:29:00,28.8,25.4,30.08,WNW,296,3.0,9.0,87,0.00,,,0.00,Wunderground v.1.15,2013-02-03 13:29:00,
2013-02-03 08:30:00,28.8,25.4,30.08,NNW,329,3.0,9.0,87,0.00,,,0.00,Wunderground v.1.15,2013-02-03 13:30:00,
2013-02-03 08:31:00,28.7,25.3,30.08,NW,313,3.0,3.0,87,0.00,,,0.00,Wunderground v.1.15,2013-02-03 13:31:00,
2013-02-03 08:33:00,28.7,25.3,30.08,WNW,303,3.0,9.0,87,0.00,,,0.00,Wunderground v.1.15,2013-02-03 13:33:00,
2013-02-03 08:35:00,28.7,25.3,30.09,NW,312,3.0,9.0,87,0.00,,,0.00,Wunderground v.1.15,2013-02-03 13:35:00,
2013-02-03 08:37:00,28.7,25.3,30.09,NW,316,3.0,9.0,87,0.00,,,0.00,Wunderground v.1.15,2013-02-03 13:37:00,
2013-02-03 08:39:00,28.7,25.3,30.09,NW,311,2.0,9.0,87,0.00,,,0.00,Wunderground v.1.15,2013-02-03 13:39:00,
2013-02-03 08:41:00,28.7,25.3,30.09,NW,319,2.0,9.0,87,0.00,,,0.00,Wunderground v.1.15,2013-02-03 13:41:00,
2013-02-03 08:43:00,28.7,25.3,30.09,NW,316,2.0,9.0,87,0.00,,,0.00,Wunderground v.1.15,2013-02-03 13:43:00,
2013-02-03 08:44:00,28.7,25.3,30.09,NW,316,2.0,9.0,87,0.00,,,0.00,Wunderground v.1.15,2013-02-03 13:44:00,
2013-02-03 08:47:00,28.6,25.5,30.09,WNW,291,2.0,9.0,88,0.00,,,0.00,Wunderground v.1.15,2013-02-03 13:47:00,
2013-02-03 08:49:00,28.5,25.4,30.09,NW,313,2.0,9.0,88,0.00,,,0.00,Wunderground v.1.15,2013-02-03 13:49:00,
2013-02-03 08:51:00,28.5,25.7,30.09,NW,304,2.0,9.0,89,0.00,,,0.00,Wunderground v.1.15,2013-02-03 13:51:00,
2013-02-03 08:52:00,28.5,25.7,30.09,NW,319,2.0,9.0,89,0.00,,,0.00,Wunderground v.1.15,2013-02-03 13:52:00,
2013-02-03 08:55:00,28.4,25.6,30.09,WNW,298,2.0,9.0,89,0.00,,,0.00,Wunderground v.1.15,2013-02-03 13:55:00,
2013-02-03 08:57:00,28.4,25.6,30.09,NW,306,1.0,9.0,89,0.00,,,0.00,Wunderground v.1.15,2013-02-03 13:57:00,
2013-02-03 08:58:00,28.4,25.6,30.09,WNW,303,2.0,9.0,89,0.00,,,0.00,Wunderground v.1.15,2013-02-03 13:58:00,
2013-02-03 09:03:00,28.4,25.6,30.09,NW,322,1.0,9.0,89,0.00,,,0.00,Wunderground v.1.15,2013-02-03 14:03:00,
2013-02-03 09:04:00,28.4,25.8,30.09,NW,312,1.0,9.0,90,0.00,,,0.00,Wunderground v.1.15,2013-02-03 14:04:00,
2013-02-03 09:05:00,28.4,25.8,30.09,NW,318,1.0,9.0,90,0.00,,,0.00,Wunderground v.1.15,2013-02-03 14:05:00,
2013-02-03 09:06:00,28.4,25.8,30.09,WNW,296,1.0,9.0,90,0.00,,,0.00,Wunderground v.1.15,2013-02-03 14:06:00,
2013-02-03 09:10:00,28.4,25.8,30.09,NNW,332,1.0,9.0,90,0.00,,,0.00,Wunderground v.1.15,2013-02-03 14:10:00,
2013-02-03 09:11:00,28.4,25.8,30.09,NW,320,1.0,1.0,90,0.00,,,0.00,Wunderground v.1.15,2013-02-03 14:11:00,
2013-02-03 09:15:00,28.5,25.9,30.09,NNW,344,1.0,9.0,90,0.00,,,0.00,Wunderground v.1.15,2013-02-03 14:15:00,
2013-02-03 09:16:00,28.5,25.9,30.09,NNW,329,1.0,9.0,90,0.00,,,0.00,Wunderground v.1.15,2013-02-03 14:16:00,
2013-02-03 09:21:00,28.5,25.9,30.09,NNW,334,2.0,9.0,90,0.00,,,0.00,Wunderground v.1.15,2013-02-03 14:21:00,
2013-02-03 09:22:00,28.5,25.9,30.09,NW,319,2.0,9.0,90,0.00,,,0.00,Wunderground v.1.15,2013-02-03 14:22:00,
2013-02-03 09:27:00,28.5,25.9,30.09,NNW,329,2.0,9.0,90,0.00,,,0.00,Wunderground v.1.15,2013-02-03 14:27:00,
2013-02-03 09:28:00,28.6,26.0,30.09,NW,325,2.0,9.0,90,0.00,,,0.00,Wunderground v.1.15,2013-02-03 14:28:00,
2013-02-03 09:29:00,28.6,26.0,30.09,NW,323,2.0,9.0,90,0.00,,,0.00,Wunderground v.1.15,2013-02-03 14:29:00,
2013-02-03 09:34:00,28.6,26.0,30.09,NW,306,1.0,9.0,90,0.00,,,0.00,Wunderground v.1.15,2013-02-03 14:34:00,
2013-02-03 09:35:00,28.6,26.0,30.09,NW,306,1.0,9.0,90,0.00,,,0.00,Wunderground v.1.15,2013-02-03 14:35:00,
2013-02-03 09:36:00,28.6,26.0,30.09,NW,307,1.0,9.0,90,0.00,,,0.00,Wunderground v.1.15,2013-02-03 14:36:00,
2013-02-03 09:41:00,28.6,26.0,30.09,WNW,302,1.0,9.0,90,0.00,,,0.00,Wunderground v.1.15,2013-02-03 14:41:00,
2013-02-03 09:42:00,28.6,26.0,30.09,NW,309,1.0,9.0,90,0.00,,,0.00,Wunderground v.1.15,2013-02-03 14:42:00,
2013-02-03 09:47:00,28.6,25.8,30.09,NNW,327,3.0,9.0,89,0.00,,,0.00,Wunderground v.1.15,2013-02-03 14:47:00,
2013-02-03 09:50:00,28.6,25.8,30.09,NW,323,3.0,9.0,89,0.00,,,0.00,Wunderground v.1.15,2013-02-03 14:50:00,
2013-02-03 09:51:00,28.6,25.8,30.09,WNW,303,3.0,9.0,89,0.00,,,0.00,Wunderground v.1.15,2013-02-03 14:51:00,
2013-02-03 09:52:00,28.6,25.8,30.09,WNW,294,4.0,9.0,89,0.00,,,0.00,Wunderground v.1.15,2013-02-03 14:52:00,
2013-02-03 09:56:00,28.6,25.5,30.09,NW,325,3.0,9.0,88,0.00,,,0.00,Wunderground v.1.15,2013-02-03 14:56:00,
2013-02-03 09:57:00,28.6,25.5,30.09,NW,321,4.0,9.0,88,0.00,,,0.00,Wunderground v.1.15,2013-02-03 14:57:00,
2013-02-03 09:58:00,28.6,25.5,30.10,NW,325,3.0,9.0,88,0.00,,,0.00,Wunderground v.1.15,2013-02-03 14:58:00,
2013-02-03 10:01:00,28.7,25.6,30.09,NNW,329,4.0,9.0,88,0.00,,,0.00,Wunderground v.1.15,2013-02-03 15:01:00,
2013-02-03 10:04:00,28.6,25.5,30.10,NW,313,4.0,9.0,88,0.00,,,0.00,Wunderground v.1.15,2013-02-03 15:04:00,
2013-02-03 10:05:00,28.6,25.5,30.10,NNW,332,4.0,9.0,88,0.00,,,0.00,Wunderground v.1.15,2013-02-03 15:05:00,
2013-02-03 10:08:00,28.6,25.2,30.10,NW,306,5.0,9.0,87,0.00,,,0.00,Wunderground v.1.15,2013-02-03 15:08:00,
2013-02-03 10:09:00,28.6,25.2,30.10,NW,321,5.0,9.0,87,0.00,,,0.00,Wunderground v.1.15,2013-02-03 15:09:00,
2013-02-03 10:10:00,28.6,25.2,30.10,NW,306,5.0,9.0,87,0.00,,,0.00,Wunderground v.1.15,2013-02-03 15:10:00,
2013-02-03 10:12:00,28.6,25.2,30.10,NW,318,6.0,9.0,87,0.00,,,0.00,Wunderground v.1.15,2013-02-03 15:12:00,
2013-02-03 10:14:00,28.6,25.5,30.10,NW,316,5.0,9.0,88,0.00,,,0.00,Wunderground v.1.15,2013-02-03 15:14:00,
2013-02-03 10:16:00,28.6,25.5,30.10,NNW,331,5.0,9.0,88,0.00,,,0.00,Wunderground v.1.15,2013-02-03 15:16:00,
2013-02-03 10:17:00,28.6,25.5,30.10,NNW,330,4.0,9.0,88,0.00,,,0.00,Wunderground v.1.15,2013-02-03 15:17:00,
2013-02-03 10:22:00,28.6,25.2,30.10,NW,313,3.0,9.0,87,0.00,,,0.00,Wunderground v.1.15,2013-02-03 15:22:00,
2013-02-03 10:23:00,28.5,25.1,30.10,WNW,303,3.0,9.0,87,0.00,,,0.00,Wunderground v.1.15,2013-02-03 15:23:00,
2013-02-03 10:26:00,28.5,25.1,30.10,NW,319,4.0,9.0,87,0.00,,,0.00,Wunderground v.1.15,2013-02-03 15:26:00,
2013-02-03 10:28:00,28.5,25.1,30.10,NW,315,3.0,9.0,87,0.00,,,0.00,Wunderground v.1.15,2013-02-03 15:28:00,
2013-02-03 10:30:00,28.5,25.1,30.10,NW,320,4.0,9.0,87,0.00,,,0.00,Wunderground v.1.15,2013-02-03 15:30:00,
2013-02-03 10:33:00,28.4,25.0,30.10,North,5,4.0,9.0,87,0.00,,,0.00,Wunderground v.1.15,2013-02-03 15:33:00,
2013-02-03 10:37:00,28.3,24.6,30.10,NNW,331,5.0,9.0,86,0.00,,,0.00,Wunderground v.1.15,2013-02-03 15:37:00,
2013-02-03 10:39:00,28.2,24.6,30.10,NW,323,5.0,9.0,86,0.00,,,0.00,Wunderground v.1.15,2013-02-03 15:39:00,
2013-02-03 10:41:00,28.3,24.9,30.10,NNW,341,4.0,9.0,87,0.00,,,0.00,Wunderground v.1.15,2013-02-03 15:41:00,
2013-02-03 10:46:00,28.3,24.6,30.10,NNW,341,3.0,9.0,86,0.00,,,0.00,Wunderground v.1.15,2013-02-03 15:46:00,
2013-02-03 10:47:00,28.3,24.6,30.10,NW,315,3.0,9.0,86,0.00,,,0.00,Wunderground v.1.15,2013-02-03 15:47:00,
2013-02-03 10:48:00,28.4,24.7,30.10,NW,314,2.0,9.0,86,0.00,,,0.00,Wunderground v.1.15,2013-02-03 15:48:00,
2013-02-03 10:49:00,28.4,24.7,30.10,NNW,336,2.0,9.0,86,0.00,,,0.00,Wunderground v.1.15,2013-02-03 15:49:00,
2013-02-03 10:52:00,28.5,24.8,30.10,NNW,331,3.0,9.0,86,0.00,,,0.00,Wunderground v.1.15,2013-02-03 15:52:00,
2013-02-03 10:53:00,28.5,24.6,30.10,NW,319,3.0,9.0,85,0.00,,,0.00,Wunderground v.1.15,2013-02-03 15:53:00,
2013-02-03 10:54:00,28.5,24.6,30.10,North,5,3.0,9.0,85,0.00,,,0.00,Wunderground v.1.15,2013-02-03 15:54:00,
2013-02-03 10:59:00,28.4,24.5,30.11,NW,326,4.0,9.0,85,0.00,,,0.00,Wunderground v.1.15,2013-02-03 15:59:00,
2013-02-03 11:01:00,28.4,24.5,30.11,NW,314,5.0,5.0,85,0.00,,,0.00,Wunderground v.1.15,2013-02-03 16:01:00,
2013-02-03 11:04:00,28.5,24.6,30.11,NW,317,4.0,9.0,85,0.00,,,0.00,Wunderground v.1.15,2013-02-03 16:04:00,
2013-02-03 11:07:00,28.6,24.7,30.11,NW,313,4.0,9.0,85,0.00,,,0.00,Wunderground v.1.15,2013-02-03 16:07:00,
2013-02-03 11:08:00,28.5,24.6,30.11,NW,315,4.0,9.0,85,0.00,,,0.00,Wunderground v.1.15,2013-02-03 16:08:00,
2013-02-03 11:09:00,28.5,24.6,30.11,NW,304,4.0,9.0,85,0.00,,,0.00,Wunderground v.1.15,2013-02-03 16:09:00,
2013-02-03 11:12:00,28.4,24.5,30.11,NNW,330,4.0,9.0,85,0.00,,,0.00,Wunderground v.1.15,2013-02-03 16:12:00,
2013-02-03 11:13:00,28.4,24.5,30.11,North,355,4.0,9.0,85,0.00,,,0.00,Wunderground v.1.15,2013-02-03 16:13:00,
2013-02-03 11:17:00,28.2,24.3,30.11,NNW,345,5.0,9.0,85,0.00,,,0.00,Wunderground v.1.15,2013-02-03 16:17:00,
2013-02-03 11:18:00,28.2,24.3,30.11,North,360,5.0,9.0,85,0.00,,,0.00,Wunderground v.1.15,2013-02-03 16:18:00,
2013-02-03 11:21:00,28.2,24.3,30.11,North,355,4.0,4.0,85,0.00,,,0.00,Wunderground v.1.15,2013-02-03 16:21:00,
2013-02-03 11:24:00,28.3,24.4,30.11,NNW,327,4.0,9.0,85,0.00,,,0.00,Wunderground v.1.15,2013-02-03 16:24:00,
2013-02-03 11:25:00,28.3,24.4,30.11,NW,317,4.0,9.0,85,0.00,,,0.00,Wunderground v.1.15,2013-02-03 16:25:00,
2013-02-03 11:28:00,28.4,24.5,30.11,North,360,3.0,9.0,85,0.00,,,0.00,Wunderground v.1.15,2013-02-03 16:28:00,
2013-02-03 11:29:00,28.4,24.5,30.11,NNW,344,3.0,9.0,85,0.00,,,0.00,Wunderground v.1.15,2013-02-03 16:29:00,
2013-02-03 11:31:00,28.6,24.7,30.11,NNW,336,3.0,9.0,85,0.00,,,0.00,Wunderground v.1.15,2013-02-03 16:31:00,
2013-02-03 11:32:00,28.7,24.8,30.11,WNW,295,2.0,9.0,85,0.00,,,0.00,Wunderground v.1.15,2013-02-03 16:32:00,
2013-02-03 11:34:00,28.7,24.8,30.11,NW,325,2.0,9.0,85,0.00,,,0.00,Wunderground v.1.15,2013-02-03 16:34:00,
2013-02-03 11:36:00,28.7,24.5,30.11,NW,309,2.0,9.0,84,0.00,,,0.00,Wunderground v.1.15,2013-02-03 16:36:00,
2013-02-03 11:39:00,28.5,24.3,30.11,NNW,336,3.0,9.0,84,0.00,,,0.00,Wunderground v.1.15,2013-02-03 16:39:00,
2013-02-03 11:40:00,28.5,24.3,30.11,NW,311,3.0,9.0,84,0.00,,,0.00,Wunderground v.1.15,2013-02-03 16:40:00,
2013-02-03 11:43:00,28.4,24.2,30.11,NNW,342,5.0,9.0,84,0.00,,,0.00,Wunderground v.1.15,2013-02-03 16:43:00,
2013-02-03 11:44:00,28.4,24.2,30.11,NW,308,5.0,9.0,84,0.00,,,0.00,Wunderground v.1.15,2013-02-03 16:44:00,
2013-02-03 11:48:00,28.4,24.5,30.11,NNW,328,5.0,9.0,85,0.00,,,0.00,Wunderground v.1.15,2013-02-03 16:48:00,
2013-02-03 11:49:00,28.5,24.3,30.11,WNW,294,6.0,9.0,84,0.00,,,0.00,Wunderground v.1.15,2013-02-03 16:49:00,
2013-02-03 11:50:00,28.5,24.6,30.11,NW,319,5.0,9.0,85,0.00,,,0.00,Wunderground v.1.15,2013-02-03 16:50:00,
2013-02-03 11:53:00,28.6,24.4,30.11,NW,318,5.0,9.0,84,0.00,,,0.00,Wunderground v.1.15,2013-02-03 16:53:00,
2013-02-03 11:55:00,28.6,24.4,30.11,NW,313,4.0,9.0,84,0.00,,,0.00,Wunderground v.1.15,2013-02-03 16:55:00,
2013-02-03 11:56:00,28.7,24.5,30.11,NW,317,4.0,9.0,84,0.00,,,0.00,Wunderground v.1.15,2013-02-03 16:56:00,
2013-02-03 11:57:00,28.7,24.8,30.11,WNW,284,3.0,9.0,85,0.00,,,0.00,Wunderground v.1.15,2013-02-03 16:57:00,
2013-02-03 11:59:00,28.7,24.5,30.11,NW,324,3.0,9.0,84,0.00,,,0.00,Wunderground v.1.15,2013-02-03 16:59:00,
2013-02-03 12:01:00,28.7,24.5,30.10,NW,306,4.0,9.0,84,0.00,,,0.00,Wunderground v.1.15,2013-02-03 17:01:00,
2013-02-03 12:03:00,28.7,24.5,30.11,NNW,340,4.0,9.0,84,0.00,,,0.00,Wunderground v.1.15,2013-02-03 17:03:00,
2013-02-03 12:04:00,28.7,24.5,30.11,NNW,348,4.0,9.0,84,0.00,,,0.00,Wunderground v.1.15,2013-02-03 17:04:00,
2013-02-03 12:05:00,28.7,24.5,30.11,NW,307,4.0,9.0,84,0.00,,,0.00,Wunderground v.1.15,2013-02-03 17:05:00,
2013-02-03 12:08:00,28.9,25.0,30.10,North,360,4.0,9.0,85,0.00,,,0.00,Wunderground v.1.15,2013-02-03 17:08:00,
2013-02-03 12:10:00,28.9,24.7,30.10,NNW,344,4.0,9.0,84,0.00,,,0.00,Wunderground v.1.15,2013-02-03 17:10:00,
2013-02-03 12:11:00,28.9,24.7,30.10,NNW,328,4.0,9.0,84,0.00,,,0.00,Wunderground v.1.15,2013-02-03 17:11:00,
2013-02-03 12:13:00,28.8,24.6,30.10,NW,315,4.0,9.0,84,0.00,,,0.00,Wunderground v.1.15,2013-02-03 17:13:00,
2013-02-03 12:15:00,28.7,24.2,30.10,NNW,345,4.0,9.0,83,0.00,,,0.00,Wunderground v.1.15,2013-02-03 17:15:00,
2013-02-03 12:17:00,28.6,24.4,30.10,North,5,5.0,9.0,84,0.00,,,0.00,Wunderground v.1.15,2013-02-03 17:17:00,
2013-02-03 12:20:00,28.5,24.3,30.11,NNW,331,5.0,9.0,84,0.00,,,0.00,Wunderground v.1.15,2013-02-03 17:20:00,
2013-02-03 12:23:00,28.6,24.4,30.11,WNW,300,6.0,9.0,84,0.00,,,0.00,Wunderground v.1.15,2013-02-03 17:23:00,
2013-02-03 12:24:00,28.6,24.4,30.11,NW,310,6.0,9.0,84,0.00,,,0.00,Wunderground v.1.15,2013-02-03 17:24:00,
2013-02-03 12:28:00,28.5,24.3,30.11,NW,324,5.0,9.0,84,0.00,,,0.00,Wunderground v.1.15,2013-02-03 17:28:00,
2013-02-03 12:29:00,28.6,24.4,30.11,NW,324,5.0,9.0,84,0.00,,,0.00,Wunderground v.1.15,2013-02-03 17:29:00,
2013-02-03 12:30:00,28.6,24.4,30.11,NW,322,5.0,9.0,84,0.00,,,0.00,Wunderground v.1.15,2013-02-03 17:30:00,
2013-02-03 12:31:00,28.6,24.7,30.11,NW,316,5.0,5.0,85,0.00,,,0.00,Wunderground v.1.15,2013-02-03 17:31:00,
2013-02-03 12:34:00,28.7,24.5,30.11,NW,311,4.0,9.0,84,0.00,,,0.00,Wunderground v.1.15,2013-02-03 17:34:00,
2013-02-03 12:35:00,28.6,24.4,30.11,WNW,296,4.0,9.0,84,0.00,,,0.00,Wunderground v.1.15,2013-02-03 17:35:00,
2013-02-03 12:39:00,28.7,24.8,30.11,NW,313,4.0,9.0,85,0.00,,,0.00,Wunderground v.1.15,2013-02-03 17:39:00,
2013-02-03 12:41:00,28.8,24.9,30.11,NW,315,3.0,9.0,85,0.00,,,0.00,Wunderground v.1.15,2013-02-03 17:41:00,
2013-02-03 12:42:00,28.8,24.9,30.11,NW,305,3.0,9.0,85,0.00,,,0.00,Wunderground v.1.15,2013-02-03 17:42:00,
2013-02-03 12:43:00,28.8,24.9,30.11,NNW,346,4.0,9.0,85,0.00,,,0.00,Wunderground v.1.15,2013-02-03 17:43:00,
2013-02-03 12:44:00,28.7,24.8,30.11,NNW,329,4.0,9.0,85,0.00,,,0.00,Wunderground v.1.15,2013-02-03 17:44:00,
2013-02-03 12:46:00,28.6,24.4,30.11,NW,322,5.0,9.0,84,0.00,,,0.00,Wunderground v.1.15,2013-02-03 17:46:00,
2013-02-03 12:47:00,28.6,24.7,30.11,NW,316,6.0,9.0,85,0.00,,,0.00,Wunderground v.1.15,2013-02-03 17:47:00,
2013-02-03 12:50:00,28.5,24.6,30.12,North,351,6.0,9.0,85,0.00,,,0.00,Wunderground v.1.15,2013-02-03 17:50:00,
2013-02-03 12:54:00,28.5,24.6,30.11,NW,323,7.0,11.0,85,0.00,,,0.00,Wunderground v.1.15,2013-02-03 17:54:00,
2013-02-03 12:56:00,28.5,24.6,30.12,WNW,298,7.0,11.0,85,0.00,,,0.00,Wunderground v.1.15,2013-02-03 17:56:00,
2013-02-03 12:58:00,28.6,24.7,30.12,NW,320,6.0,11.0,85,0.00,,,0.00,Wunderground v.1.15,2013-02-03 17:58:00,
2013-02-03 12:59:00,28.6,24.7,30.12,NW,317,6.0,11.0,85,0.00,,,0.00,Wunderground v.1.15,2013-02-03 17:59:00,
2013-02-03 13:01:00,28.6,24.7,30.12,NNW,327,5.0,5.0,85,0.00,,,0.00,Wunderground v.1.15,2013-02-03 18:01:00,
2013-02-03 13:04:00,28.6,24.7,30.12,NNW,346,4.0,9.0,85,0.00,,,0.00,Wunderground v.1.15,2013-02-03 18:04:00,
2013-02-03 13:06:00,28.6,24.7,30.12,NW,319,4.0,9.0,85,0.00,,,0.00,Wunderground v.1.15,2013-02-03 18:06:00,
2013-02-03 13:07:00,28.6,24.7,30.12,NW,321,4.0,9.0,85,0.00,,,0.00,Wunderground v.1.15,2013-02-03 18:07:00,
2013-02-03 13:09:00,28.7,24.8,30.13,NNW,331,3.0,9.0,85,0.00,,,0.00,Wunderground v.1.15,2013-02-03 18:09:00,
2013-02-03 13:13:00,28.7,24.8,30.13,NNW,327,4.0,9.0,85,0.00,,,0.00,Wunderground v.1.15,2013-02-03 18:13:00,
2013-02-03 13:16:00,28.7,24.8,30.13,NW,313,4.0,9.0,85,0.00,,,0.00,Wunderground v.1.15,2013-02-03 18:16:00,
2013-02-03 13:17:00,28.6,24.7,30.13,WNW,300,5.0,9.0,85,0.00,,,0.00,Wunderground v.1.15,2013-02-03 18:17:00,
2013-02-03 13:18:00,28.7,24.8,30.13,NW,309,5.0,9.0,85,0.00,,,0.00,Wunderground v.1.15,2013-02-03 18:18:00,
2013-02-03 13:23:00,28.7,24.8,30.13,NW,315,5.0,9.0,85,0.00,,,0.00,Wunderground v.1.15,2013-02-03 18:23:00,
2013-02-03 13:24:00,28.7,24.8,30.13,NNW,327,5.0,9.0,85,0.00,,,0.00,Wunderground v.1.15,2013-02-03 18:24:00,
2013-02-03 13:29:00,28.8,24.9,30.13,WNW,298,4.0,9.0,85,0.00,,,0.00,Wunderground v.1.15,2013-02-03 18:29:00,
2013-02-03 13:30:00,28.8,24.9,30.13,WNW,292,5.0,9.0,85,0.00,,,0.00,Wunderground v.1.15,2013-02-03 18:30:00,
2013-02-03 13:31:00,28.8,24.9,30.13,NW,311,5.0,5.0,85,0.00,,,0.00,Wunderground v.1.15,2013-02-03 18:31:00,
2013-02-03 13:34:00,28.9,25.0,30.13,NW,311,3.0,9.0,85,0.00,,,0.00,Wunderground v.1.15,2013-02-03 18:34:00,
2013-02-03 13:38:00,29.0,25.1,30.13,NW,305,3.0,9.0,85,0.00,,,0.00,Wunderground v.1.15,2013-02-03 18:38:00,
2013-02-03 13:39:00,29.0,25.1,30.13,WNW,294,3.0,9.0,85,0.00,,,0.00,Wunderground v.1.15,2013-02-03 18:39:00,
2013-02-03 13:41:00,29.0,24.8,30.12,NW,321,3.0,9.0,84,0.00,,,0.00,Wunderground v.1.15,2013-02-03 18:41:00,
2013-02-03 13:44:00,28.9,24.7,30.13,NW,315,5.0,9.0,84,0.00,,,0.00,Wunderground v.1.15,2013-02-03 18:44:00,
2013-02-03 13:46:00,28.8,24.6,30.13,West,280,6.0,9.0,84,0.00,,,0.00,Wunderground v.1.15,2013-02-03 18:46:00,
2013-02-03 13:50:00,28.9,24.7,30.13,NW,323,6.0,9.0,84,0.00,,,0.00,Wunderground v.1.15,2013-02-03 18:50:00,
2013-02-03 13:51:00,28.9,24.7,30.13,NW,317,6.0,9.0,84,0.00,,,0.00,Wunderground v.1.15,2013-02-03 18:51:00,
2013-02-03 13:52:00,28.9,24.7,30.13,NNW,342,6.0,10.0,84,0.00,,,0.00,Wunderground v.1.15,2013-02-03 18:52:00,
2013-02-03 13:58:00,28.9,24.7,30.13,NNW,327,7.0,10.0,84,0.00,,,0.00,Wunderground v.1.15,2013-02-03 18:58:00,
2013-02-03 14:02:00,29.0,24.8,30.13,WNW,299,7.0,9.0,84,0.00,,,0.00,Wunderground v.1.15,2013-02-03 19:02:00,
2013-02-03 14:03:00,29.0,24.8,30.13,NW,322,6.0,9.0,84,0.00,,,0.00,Wunderground v.1.15,2013-02-03 19:03:00,
2013-02-03 14:06:00,28.9,24.4,30.13,NW,311,5.0,9.0,83,0.00,,,0.00,Wunderground v.1.15,2013-02-03 19:06:00,
2013-02-03 14:11:00,28.9,24.4,30.13,NW,320,5.0,9.0,83,0.00,,,0.00,Wunderground v.1.15,2013-02-03 19:11:00,
2013-02-03 14:12:00,28.9,24.4,30.13,NW,309,5.0,9.0,83,0.00,,,0.00,Wunderground v.1.15,2013-02-03 19:12:00,
2013-02-03 14:13:00,28.9,24.7,30.13,WNW,302,5.0,9.0,84,0.00,,,0.00,Wunderground v.1.15,2013-02-03 19:13:00,
2013-02-03 14:17:00,29.0,24.5,30.13,WNW,296,5.0,9.0,83,0.00,,,0.00,Wunderground v.1.15,2013-02-03 19:17:00,
2013-02-03 14:18:00,29.0,24.5,30.13,WNW,294,4.0,9.0,83,0.00,,,0.00,Wunderground v.1.15,2013-02-03 19:18:00,
2013-02-03 14:19:00,29.0,24.5,30.13,WNW,301,4.0,9.0,83,0.00,,,0.00,Wunderground v.1.15,2013-02-03 19:19:00,
2013-02-03 14:21:00,29.0,24.5,30.13,NW,308,5.0,5.0,83,0.00,,,0.00,Wunderground v.1.15,2013-02-03 19:21:00,
2013-02-03 14:23:00,29.0,24.5,30.13,NW,306,5.0,9.0,83,0.00,,,0.00,Wunderground v.1.15,2013-02-03 19:23:00,
2013-02-03 14:25:00,29.0,24.5,30.13,NW,325,5.0,9.0,83,0.00,,,0.00,Wunderground v.1.15,2013-02-03 19:25:00,
2013-02-03 14:26:00,29.0,24.5,30.13,NW,324,5.0,9.0,83,0.00,,,0.00,Wunderground v.1.15,2013-02-03 19:26:00,
2013-02-03 14:29:00,29.0,24.5,30.13,NW,305,6.0,9.0,83,0.00,,,0.00,Wunderground v.1.15,2013-02-03 19:29:00,
2013-02-03 14:30:00,29.0,24.5,30.14,NW,306,6.0,9.0,83,0.00,,,0.00,Wunderground v.1.15,2013-02-03 19:30:00,
2013-02-03 14:31:00,29.0,24.5,30.14,WNW,302,5.0,5.0,83,0.00,,,0.00,Wunderground v.1.15,2013-02-03 19:31:00,
2013-02-03 14:34:00,29.1,24.6,30.13,NW,318,5.0,9.0,83,0.00,,,0.00,Wunderground v.1.15,2013-02-03 19:34:00,
2013-02-03 14:36:00,29.0,24.2,30.13,NW,313,5.0,10.0,82,0.00,,,0.00,Wunderground v.1.15,2013-02-03 19:36:00,
2013-02-03 14:39:00,29.0,24.5,30.13,NNW,329,5.0,10.0,83,0.00,,,0.00,Wunderground v.1.15,2013-02-03 19:39:00,
2013-02-03 14:41:00,29.0,24.5,30.13,NW,305,6.0,6.0,83,0.00,,,0.00,Wunderground v.1.15,2013-02-03 19:41:00,
2013-02-03 14:45:00,29.0,24.5,30.14,NNW,336,5.0,9.0,83,0.00,,,0.00,Wunderground v.1.15,2013-02-03 19:45:00,
2013-02-03 14:47:00,29.0,24.5,30.14,NW,310,4.0,9.0,83,0.00,,,0.00,Wunderground v.1.15,2013-02-03 19:47:00,
2013-02-03 14:50:00,29.1,24.6,30.14,NW,307,4.0,9.0,83,0.00,,,0.00,Wunderground v.1.15,2013-02-03 19:50:00,
2013-02-03 14:53:00,29.2,24.7,30.14,NW,316,3.0,9.0,83,0.00,,,0.00,Wunderground v.1.15,2013-02-03 19:53:00,
2013-02-03 14:55:00,29.2,24.7,30.14,WNW,300,3.0,9.0,83,0.00,,,0.00,Wunderground v.1.15,2013-02-03 19:55:00,
2013-02-03 14:56:00,29.2,24.7,30.15,WNW,294,3.0,9.0,83,0.00,,,0.00,Wunderground v.1.15,2013-02-03 19:56:00,
2013-02-03 14:57:00,29.2,24.7,30.15,NW,306,3.0,9.0,83,0.00,,,0.00,Wunderground v.1.15,2013-02-03 19:57:00,
2013-02-03 15:01:00,29.2,24.7,30.15,NNW,331,4.0,4.0,83,0.00,,,0.00,Wunderground v.1.15,2013-02-03 20:01:00,
2013-02-03 15:02:00,29.2,24.7,30.15,WNW,286,4.0,9.0,83,0.00,,,0.00,Wunderground v.1.15,2013-02-03 20:02:00,
2013-02-03 15:03:00,29.3,24.8,30.15,NW,325,4.0,9.0,83,0.00,,,0.00,Wunderground v.1.15,2013-02-03 20:03:00,
2013-02-03 15:07:00,29.3,24.8,30.15,WNW,303,5.0,9.0,83,0.00,,,0.00,Wunderground v.1.15,2013-02-03 20:07:00,
2013-02-03 15:08:00,29.3,25.1,30.16,NW,315,5.0,9.0,84,0.00,,,0.00,Wunderground v.1.15,2013-02-03 20:08:00,
2013-02-03 15:09:00,29.3,25.1,30.16,NW,310,5.0,9.0,84,0.00,,,0.00,Wunderground v.1.15,2013-02-03 20:09:00,
2013-02-03 15:13:00,29.3,24.8,30.15,NW,318,5.0,9.0,83,0.00,,,0.00,Wunderground v.1.15,2013-02-03 20:13:00,
2013-02-03 15:15:00,29.3,24.8,30.15,NW,317,5.0,9.0,83,0.00,,,0.00,Wunderground v.1.15,2013-02-03 20:15:00,
2013-02-03 15:17:00,29.2,24.7,30.15,NW,326,5.0,9.0,83,0.00,,,0.00,Wunderground v.1.15,2013-02-03 20:17:00,
2013-02-03 15:21:00,29.0,24.5,30.16,NW,320,7.0,7.0,83,0.00,,,0.00,Wunderground v.1.15,2013-02-03 20:21:00,
2013-02-03 15:22:00,29.0,24.5,30.16,NW,322,8.0,8.0,83,0.00,,,0.00,Wunderground v.1.15,2013-02-03 20:22:00,
2013-02-03 15:23:00,29.0,24.8,30.16,WNW,289,8.0,9.0,84,0.00,,,0.00,Wunderground v.1.15,2013-02-03 20:23:00,
2013-02-03 15:24:00,29.0,24.8,30.16,WNW,300,8.0,9.0,84,0.00,,,0.00,Wunderground v.1.15,2013-02-03 20:24:00,
2013-02-03 15:29:00,29.0,24.5,30.16,WNW,302,7.0,13.0,83,0.00,,,0.00,Wunderground v.1.15,2013-02-03 20:29:00,
2013-02-03 15:30:00,29.0,24.5,30.16,WNW,300,7.0,13.0,83,0.00,,,0.00,Wunderground v.1.15,2013-02-03 20:30:00,
2013-02-03 15:31:00,29.0,24.5,30.16,NNW,333,7.0,11.0,83,0.00,,,0.00,Wunderground v.1.15,2013-02-03 20:31:00,
2013-02-03 15:36:00,29.0,24.5,30.16,NW,310,7.0,11.0,83,0.00,,,0.00,Wunderground v.1.15,2013-02-03 20:36:00,
2013-02-03 15:38:00,29.0,24.8,30.17,WNW,296,7.0,11.0,84,0.00,,,0.00,Wunderground v.1.15,2013-02-03 20:38:00,
2013-02-03 15:40:00,28.9,24.7,30.16,NW,319,6.0,11.0,84,0.00,,,0.00,Wunderground v.1.15,2013-02-03 20:40:00,
2013-02-03 15:42:00,28.9,24.7,30.17,NW,304,6.0,9.0,84,0.00,,,0.00,Wunderground v.1.15,2013-02-03 20:42:00,
2013-02-03 15:44:00,28.8,24.6,30.17,NW,317,6.0,9.0,84,0.00,,,0.00,Wunderground v.1.15,2013-02-03 20:44:00,
2013-02-03 15:45:00,28.8,24.6,30.17,NW,315,6.0,9.0,84,0.00,,,0.00,Wunderground v.1.15,2013-02-03 20:45:00,
2013-02-03 15:49:00,28.7,24.8,30.17,NW,313,6.0,9.0,85,0.00,,,0.00,Wunderground v.1.15,2013-02-03 20:49:00,
2013-02-03 15:50:00,28.7,24.8,30.17,NW,309,6.0,9.0,85,0.00,,,0.00,Wunderground v.1.15,2013-02-03 20:50:00,
2013-02-03 15:51:00,28.7,24.8,30.17,NW,312,6.0,9.0,85,0.00,,,0.00,Wunderground v.1.15,2013-02-03 20:51:00,
2013-02-03 15:52:00,28.7,24.8,30.17,NNW,346,6.0,10.0,85,0.00,,,0.00,Wunderground v.1.15,2013-02-03 20:52:00,
2013-02-03 15:58:00,28.5,24.8,30.17,NW,318,6.0,10.0,86,0.00,,,0.00,Wunderground v.1.15,2013-02-03 20:58:00,
2013-02-03 15:59:00,28.5,24.8,30.17,NW,313,6.0,10.0,86,0.00,,,0.00,Wunderground v.1.15,2013-02-03 20:59:00,
2013-02-03 16:04:00,28.5,25.1,30.17,NW,313,5.0,9.0,87,0.00,,,0.00,Wunderground v.1.15,2013-02-03 21:04:00,
2013-02-03 16:05:00,28.5,25.1,30.17,NW,313,5.0,9.0,87,0.00,,,0.00,Wunderground v.1.15,2013-02-03 21:05:00,
2013-02-03 16:06:00,28.5,25.1,30.17,NW,312,5.0,9.0,87,0.00,,,0.00,Wunderground v.1.15,2013-02-03 21:06:00,
2013-02-03 16:08:00,28.5,25.1,30.17,NW,308,5.0,9.0,87,0.00,,,0.00,Wunderground v.1.15,2013-02-03 21:08:00,
2013-02-03 16:10:00,28.5,25.1,30.17,NW,310,4.0,9.0,87,0.00,,,0.00,Wunderground v.1.15,2013-02-03 21:10:00,
2013-02-03 16:12:00,28.5,25.1,30.17,NW,306,3.0,9.0,87,0.00,,,0.00,Wunderground v.1.15,2013-02-03 21:12:00,
2013-02-03 16:13:00,28.5,25.1,30.18,NW,320,3.0,9.0,87,0.00,,,0.00,Wunderground v.1.15,2013-02-03 21:13:00,
2013-02-03 16:14:00,28.6,25.2,30.18,NW,308,3.0,9.0,87,0.00,,,0.00,Wunderground v.1.15,2013-02-03 21:14:00,
2013-02-03 16:19:00,28.5,25.4,30.18,WNW,299,3.0,9.0,88,0.00,,,0.00,Wunderground v.1.15,2013-02-03 21:19:00,
2013-02-03 16:20:00,28.5,25.4,30.18,NW,309,3.0,9.0,88,0.00,,,0.00,Wunderground v.1.15,2013-02-03 21:20:00,
2013-02-03 16:21:00,28.5,25.4,30.18,NW,310,3.0,3.0,88,0.00,,,0.00,Wunderground v.1.15,2013-02-03 21:21:00,
2013-02-03 16:22:00,28.5,25.4,30.18,NW,321,3.0,5.0,88,0.00,,,0.00,Wunderground v.1.15,2013-02-03 21:22:00,
2013-02-03 16:25:00,28.5,25.4,30.18,NW,306,3.0,9.0,88,0.00,,,0.00,Wunderground v.1.15,2013-02-03 21:25:00,
2013-02-03 16:26:00,28.5,25.4,30.18,NW,304,3.0,9.0,88,0.00,,,0.00,Wunderground v.1.15,2013-02-03 21:26:00,
2013-02-03 16:31:00,28.5,25.7,30.18,NW,309,3.0,3.0,89,0.00,,,0.00,Wunderground v.1.15,2013-02-03 21:31:00,
2013-02-03 16:32:00,28.5,25.7,30.18,NW,313,3.0,9.0,89,0.00,,,0.00,Wunderground v.1.15,2013-02-03 21:32:00,
2013-02-03 16:33:00,28.5,25.7,30.18,WNW,298,2.0,9.0,89,0.00,,,0.00,Wunderground v.1.15,2013-02-03 21:33:00,
2013-02-03 16:36:00,28.5,25.7,30.18,NW,310,2.0,9.0,89,0.00,,,0.00,Wunderground v.1.15,2013-02-03 21:36:00,
2013-02-03 16:37:00,28.5,25.7,30.18,NW,311,2.0,9.0,89,0.00,,,0.00,Wunderground v.1.15,2013-02-03 21:37:00,
2013-02-03 16:38:00,28.5,25.7,30.18,WNW,299,2.0,9.0,89,0.00,,,0.00,Wunderground v.1.15,2013-02-03 21:38:00,
2013-02-03 16:42:00,28.5,25.7,30.18,WNW,301,3.0,9.0,89,0.00,,,0.00,Wunderground v.1.15,2013-02-03 21:42:00,
2013-02-03 16:44:00,28.5,25.7,30.18,NW,313,3.0,9.0,89,0.00,,,0.00,Wunderground v.1.15,2013-02-03 21:44:00,
2013-02-03 16:45:00,28.5,25.9,30.19,NW,323,3.0,9.0,90,0.00,,,0.00,Wunderground v.1.15,2013-02-03 21:45:00,
2013-02-03 16:50:00,28.5,25.9,30.19,NW,306,3.0,9.0,90,0.00,,,0.00,Wunderground v.1.15,2013-02-03 21:50:00,
2013-02-03 16:51:00,28.5,25.9,30.19,NW,314,3.0,3.0,90,0.00,,,0.00,Wunderground v.1.15,2013-02-03 21:51:00,
2013-02-03 16:52:00,28.5,25.9,30.19,North,355,3.0,8.0,90,0.00,,,0.00,Wunderground v.1.15,2013-02-03 21:52:00,
2013-02-03 16:55:00,28.4,25.8,30.19,WNW,300,3.0,9.0,90,0.00,,,0.00,Wunderground v.1.15,2013-02-03 21:55:00,
2013-02-03 16:58:00,28.4,26.1,30.19,NW,309,4.0,9.0,91,0.00,,,0.00,Wunderground v.1.15,2013-02-03 21:58:00,
2013-02-03 17:01:00,28.4,26.1,30.19,WNW,302,4.0,9.0,91,0.00,,,0.00,Wunderground v.1.15,2013-02-03 22:01:00,
2013-02-03 17:03:00,28.5,25.9,30.19,North,5,5.0,9.0,90,0.00,,,0.00,Wunderground v.1.15,2013-02-03 22:03:00,
2013-02-03 17:05:00,28.5,25.9,30.19,WNW,291,5.0,9.0,90,0.00,,,0.00,Wunderground v.1.15,2013-02-03 22:05:00,
2013-02-03 17:07:00,28.6,25.8,30.19,WNW,287,6.0,9.0,89,0.00,,,0.00,Wunderground v.1.15,2013-02-03 22:07:00,
2013-02-03 17:11:00,28.7,25.6,30.19,NNW,329,7.0,11.0,88,0.00,,,0.00,Wunderground v.1.15,2013-02-03 22:11:00,
2013-02-03 17:12:00,28.7,25.3,30.19,NW,311,7.0,11.0,87,0.00,,,0.00,Wunderground v.1.15,2013-02-03 22:12:00,
2013-02-03 17:16:00,28.7,25.6,30.19,WNW,300,7.0,11.0,88,0.00,,,0.00,Wunderground v.1.15,2013-02-03 22:16:00,
2013-02-03 17:17:00,28.7,25.3,30.20,NW,317,7.0,11.0,87,0.00,,,0.00,Wunderground v.1.15,2013-02-03 22:17:00,
2013-02-03 17:18:00,28.7,25.6,30.20,NW,311,7.0,11.0,88,0.00,,,0.00,Wunderground v.1.15,2013-02-03 22:18:00,
2013-02-03 17:21:00,28.6,25.5,30.20,NW,309,7.0,9.0,88,0.00,,,0.00,Wunderground v.1.15,2013-02-03 22:21:00,
2013-02-03 17:23:00,28.5,25.4,30.20,NW,317,6.0,14.0,88,0.00,,,0.00,Wunderground v.1.15,2013-02-03 22:23:00,
2013-02-03 17:25:00,28.4,25.3,30.20,NW,323,7.0,14.0,88,0.00,,,0.00,Wunderground v.1.15,2013-02-03 22:25:00,
2013-02-03 17:29:00,28.3,25.5,30.21,NW,317,8.0,14.0,89,0.00,,,0.00,Wunderground v.1.15,2013-02-03 22:29:00,
2013-02-03 17:31:00,28.2,25.1,30.21,NNW,330,8.0,8.0,88,0.00,,,0.00,Wunderground v.1.15,2013-02-03 22:31:00,
2013-02-03 17:34:00,28.1,25.0,30.21,NW,306,8.0,9.0,88,0.00,,,0.00,Wunderground v.1.15,2013-02-03 22:34:00,
2013-02-03 17:35:00,28.1,25.0,30.21,NW,311,8.0,9.0,88,0.00,,,0.00,Wunderground v.1.15,2013-02-03 22:35:00,
2013-02-03 17:36:00,28.1,25.0,30.21,NNW,328,8.0,12.0,88,0.00,,,0.00,Wunderground v.1.15,2013-02-03 22:36:00,
2013-02-03 17:37:00,28.1,24.7,30.20,NW,322,8.0,12.0,87,0.00,,,0.00,Wunderground v.1.15,2013-02-03 22:37:00,
2013-02-03 17:40:00,28.1,24.7,30.21,NNW,337,6.0,12.0,87,0.00,,,0.00,Wunderground v.1.15,2013-02-03 22:40:00,
2013-02-03 17:43:00,28.1,24.2,30.21,NW,321,7.0,9.0,85,0.00,,,0.00,Wunderground v.1.15,2013-02-03 22:43:00,
2013-02-03 17:44:00,28.1,24.2,30.21,NW,321,7.0,12.0,85,0.00,,,0.00,Wunderground v.1.15,2013-02-03 22:44:00,
2013-02-03 17:47:00,28.1,23.6,30.21,NW,317,7.0,12.0,83,0.00,,,0.00,Wunderground v.1.15,2013-02-03 22:47:00,
2013-02-03 17:48:00,28.2,23.4,30.21,NW,325,8.0,12.0,82,0.00,,,0.00,Wunderground v.1.15,2013-02-03 22:48:00,
2013-02-03 17:50:00,28.2,23.1,30.21,NNW,339,8.0,12.0,81,0.00,,,0.00,Wunderground v.1.15,2013-02-03 22:50:00,
2013-02-03 17:51:00,28.2,23.1,30.21,NW,321,8.0,10.0,81,0.00,,,0.00,Wunderground v.1.15,2013-02-03 22:51:00,
2013-02-03 17:54:00,28.2,22.5,30.22,NNW,327,8.0,10.0,79,0.00,,,0.00,Wunderground v.1.15,2013-02-03 22:54:00,
2013-02-03 17:56:00,28.1,22.4,30.21,NW,314,8.0,10.0,79,0.00,,,0.00,Wunderground v.1.15,2013-02-03 22:56:00,
2013-02-03 17:57:00,28.1,22.4,30.22,NW,317,9.0,10.0,79,0.00,,,0.00,Wunderground v.1.15,2013-02-03 22:57:00,
2013-02-03 18:02:00,28.0,22.3,30.21,NW,319,8.0,9.0,79,0.00,,,0.00,Wunderground v.1.15,2013-02-03 23:02:00,
2013-02-03 18:03:00,27.9,22.2,30.22,WNW,302,8.0,9.0,79,0.00,,,0.00,Wunderground v.1.15,2013-02-03 23:03:00,
2013-02-03 18:09:00,27.9,22.5,30.22,NW,315,7.0,12.0,80,0.00,,,0.00,Wunderground v.1.15,2013-02-03 23:09:00,
2013-02-03 18:10:00,27.9,22.2,30.22,NW,321,8.0,12.0,79,0.00,,,0.00,Wunderground v.1.15,2013-02-03 23:10:00,
2013-02-03 18:11:00,27.9,22.2,30.22,NW,326,8.0,8.0,79,0.00,,,0.00,Wunderground v.1.15,2013-02-03 23:11:00,
2013-02-03 18:12:00,27.9,22.2,30.22,WNW,298,8.0,9.0,79,0.00,,,0.00,Wunderground v.1.15,2013-02-03 23:12:00,
2013-02-03 18:15:00,27.9,22.5,30.22,NNW,327,8.0,10.0,80,0.00,,,0.00,Wunderground v.1.15,2013-02-03 23:15:00,
2013-02-03 18:18:00,27.8,22.4,30.23,NW,308,8.0,12.0,80,0.00,,,0.00,Wunderground v.1.15,2013-02-03 23:18:00,
2013-02-03 18:20:00,27.8,22.1,30.23,NNW,331,8.0,12.0,79,0.00,,,0.00,Wunderground v.1.15,2013-02-03 23:20:00,
2013-02-03 18:21:00,27.8,22.4,30.23,WNW,303,7.0,7.0,80,0.00,,,0.00,Wunderground v.1.15,2013-02-03 23:21:00,
2013-02-03 18:23:00,27.8,22.4,30.23,NW,319,7.0,9.0,80,0.00,,,0.00,Wunderground v.1.15,2013-02-03 23:23:00,
2013-02-03 18:27:00,27.7,22.3,30.23,NW,317,6.0,9.0,80,0.00,,,0.00,Wunderground v.1.15,2013-02-03 23:27:00,
2013-02-03 18:28:00,27.7,22.3,30.23,NW,317,6.0,10.0,80,0.00,,,0.00,Wunderground v.1.15,2013-02-03 23:28:00,
2013-02-03 18:31:00,27.7,22.3,30.23,NNW,343,6.0,6.0,80,0.00,,,0.00,Wunderground v.1.15,2013-02-03 23:31:00,
2013-02-03 18:35:00,27.6,22.2,30.24,NW,321,6.0,9.0,80,0.00,,,0.00,Wunderground v.1.15,2013-02-03 23:35:00,
2013-02-03 18:36:00,27.6,22.2,30.24,NW,317,5.0,9.0,80,0.00,,,0.00,Wunderground v.1.15,2013-02-03 23:36:00,
2013-02-03 18:37:00,27.6,22.2,30.24,NW,314,6.0,9.0,80,0.00,,,0.00,Wunderground v.1.15,2013-02-03 23:37:00,
2013-02-03 18:38:00,27.6,22.2,30.24,NW,306,5.0,9.0,80,0.00,,,0.00,Wunderground v.1.15,2013-02-03 23:38:00,
2013-02-03 18:42:00,27.5,22.1,30.24,NW,310,4.0,5.0,80,0.00,,,0.00,Wunderground v.1.15,2013-02-03 23:42:00,
2013-02-03 18:43:00,27.5,22.1,30.24,NNW,333,4.0,8.0,80,0.00,,,0.00,Wunderground v.1.15,2013-02-03 23:43:00,
2013-02-03 18:44:00,27.5,21.8,30.24,NW,321,4.0,9.0,79,0.00,,,0.00,Wunderground v.1.15,2013-02-03 23:44:00,
2013-02-03 18:47:00,27.5,21.8,30.24,NNW,327,4.0,9.0,79,0.00,,,0.00,Wunderground v.1.15,2013-02-03 23:47:00,
2013-02-03 18:50:00,27.5,21.8,30.24,NW,310,5.0,9.0,79,0.00,,,0.00,Wunderground v.1.15,2013-02-03 23:50:00,
2013-02-03 18:52:00,27.5,21.8,30.24,NW,319,5.0,9.0,79,0.00,,,0.00,Wunderground v.1.15,2013-02-03 23:52:00,
2013-02-03 18:54:00,27.5,22.1,30.24,WNW,298,5.0,9.0,80,0.00,,,0.00,Wunderground v.1.15,2013-02-03 23:54:00,
2013-02-03 18:56:00,27.5,22.1,30.24,NW,304,5.0,9.0,80,0.00,,,0.00,Wunderground v.1.15,2013-02-03 23:56:00,
2013-02-03 18:58:00,27.4,22.0,30.24,WNW,300,4.0,9.0,80,0.00,,,0.00,Wunderground v.1.15,2013-02-03 23:58:00,
2013-02-03 18:59:00,27.4,22.0,30.24,WNW,291,4.0,9.0,80,0.00,,,0.00,Wunderground v.1.15,2013-02-03 23:59:00,
2013-02-03 19:01:00,27.4,22.0,30.24,NW,319,3.0,9.0,80,0.00,,,0.00,Wunderground v.1.15,2013-02-04 00:01:00,
2013-02-03 19:04:00,27.4,22.0,30.25,NW,306,2.0,9.0,80,0.00,,,0.00,Wunderground v.1.15,2013-02-04 00:04:00,
2013-02-03 19:07:00,27.3,22.2,30.25,NW,306,1.0,9.0,81,0.00,,,0.00,Wunderground v.1.15,2013-02-04 00:07:00,
2013-02-03 19:09:00,27.3,22.2,30.25,WNW,295,1.0,9.0,81,0.00,,,0.00,Wunderground v.1.15,2013-02-04 00:09:00,
2013-02-03 19:10:00,27.3,22.2,30.25,WNW,301,1.0,9.0,81,0.00,,,0.00,Wunderground v.1.15,2013-02-04 00:10:00,
2013-02-03 19:11:00,27.3,22.5,30.25,WNW,302,1.0,1.0,82,0.00,,,0.00,Wunderground v.1.15,2013-02-04 00:11:00,
2013-02-03 19:14:00,27.3,22.5,30.25,WNW,302,0.0,9.0,82,0.00,,,0.00,Wunderground v.1.15,2013-02-04 00:14:00,
2013-02-03 19:16:00,27.2,22.4,30.25,WNW,302,0.0,9.0,82,0.00,,,0.00,Wunderground v.1.15,2013-02-04 00:16:00,
2013-02-03 19:19:00,27.2,22.4,30.25,WNW,302,0.0,9.0,82,0.00,,,0.00,Wunderground v.1.15,2013-02-04 00:19:00,
2013-02-03 19:22:00,27.2,22.7,30.25,WNW,302,0.0,9.0,83,0.00,,,0.00,Wunderground v.1.15,2013-02-04 00:22:00,
2013-02-03 19:24:00,27.2,22.7,30.25,WNW,302,0.0,9.0,83,0.00,,,0.00,Wunderground v.1.15,2013-02-04 00:24:00,
2013-02-03 19:25:00,27.1,22.6,30.25,WNW,302,0.0,9.0,83,0.00,,,0.00,Wunderground v.1.15,2013-02-04 00:25:00,
2013-02-03 19:26:00,27.1,22.6,30.25,WNW,302,0.0,9.0,83,0.00,,,0.00,Wunderground v.1.15,2013-02-04 00:26:00,
2013-02-03 19:30:00,27.1,22.9,30.26,WNW,302,0.0,9.0,84,0.00,,,0.00,Wunderground v.1.15,2013-02-04 00:30:00,
2013-02-03 19:31:00,27.1,22.9,30.26,WNW,302,0.0,9.0,84,0.00,,,0.00,Wunderground v.1.15,2013-02-04 00:31:00,
2013-02-03 19:32:00,27.1,22.9,30.26,WNW,302,0.0,9.0,84,0.00,,,0.00,Wunderground v.1.15,2013-02-04 00:32:00,
2013-02-03 19:37:00,27.1,22.9,30.26,WNW,302,0.0,9.0,84,0.00,,,0.00,Wunderground v.1.15,2013-02-04 00:37:00,
2013-02-03 19:38:00,27.1,22.9,30.26,WNW,302,0.0,9.0,84,0.00,,,0.00,Wunderground v.1.15,2013-02-04 00:38:00,
2013-02-03 19:41:00,27.2,23.0,30.26,WNW,302,1.0,9.0,84,0.00,,,0.00,Wunderground v.1.15,2013-02-04 00:41:00,
2013-02-03 19:42:00,27.2,23.0,30.26,WNW,302,1.0,9.0,84,0.00,,,0.00,Wunderground v.1.15,2013-02-04 00:42:00,
2013-02-03 19:44:00,27.2,23.0,30.26,WNW,302,1.0,9.0,84,0.00,,,0.00,Wunderground v.1.15,2013-02-04 00:44:00,
2013-02-03 19:47:00,27.2,23.0,30.27,WNW,302,1.0,9.0,84,0.00,,,0.00,Wunderground v.1.15,2013-02-04 00:47:00,
2013-02-03 19:48:00,27.2,23.0,30.27,WNW,302,1.0,9.0,84,0.00,,,0.00,Wunderground v.1.15,2013-02-04 00:48:00,
2013-02-03 19:49:00,27.2,23.0,30.27,WNW,302,1.0,9.0,84,0.00,,,0.00,Wunderground v.1.15,2013-02-04 00:49:00,
2013-02-03 19:54:00,27.2,23.0,30.27,WNW,302,0.0,9.0,84,0.00,,,0.00,Wunderground v.1.15,2013-02-04 00:54:00,
2013-02-03 19:55:00,27.1,22.9,30.27,WNW,302,0.0,9.0,84,0.00,,,0.00,Wunderground v.1.15,2013-02-04 00:55:00,
2013-02-03 19:56:00,27.1,22.9,30.27,WNW,302,0.0,9.0,84,0.00,,,0.00,Wunderground v.1.15,2013-02-04 00:56:00,
2013-02-03 19:57:00,27.1,22.9,30.27,WNW,302,0.0,9.0,84,0.00,,,0.00,Wunderground v.1.15,2013-02-04 00:57:00,
2013-02-03 20:01:00,27.1,22.9,30.27,WNW,302,0.0,9.0,84,0.00,,,0.00,Wunderground v.1.15,2013-02-04 01:01:00,
2013-02-03 20:02:00,27.1,22.9,30.27,WNW,302,0.0,9.0,84,0.00,,,0.00,Wunderground v.1.15,2013-02-04 01:02:00,
2013-02-03 20:04:00,27.1,22.9,30.27,WNW,302,0.0,9.0,84,0.00,,,0.00,Wunderground v.1.15,2013-02-04 01:04:00,
2013-02-03 20:07:00,27.1,22.9,30.27,WNW,302,0.0,9.0,84,0.00,,,0.00,Wunderground v.1.15,2013-02-04 01:07:00,
2013-02-03 20:09:00,27.1,22.9,30.26,WNW,302,0.0,9.0,84,0.00,,,0.00,Wunderground v.1.15,2013-02-04 01:09:00,
2013-02-03 20:10:00,27.1,22.9,30.26,WNW,302,0.0,9.0,84,0.00,,,0.00,Wunderground v.1.15,2013-02-04 01:10:00,
2013-02-03 20:12:00,27.1,22.9,30.26,WNW,302,0.0,9.0,84,0.00,,,0.00,Wunderground v.1.15,2013-02-04 01:12:00,
2013-02-03 20:15:00,27.1,22.9,30.26,WNW,302,0.0,9.0,84,0.00,,,0.00,Wunderground v.1.15,2013-02-04 01:15:00,
2013-02-03 20:17:00,27.1,22.9,30.26,WNW,302,0.0,9.0,84,0.00,,,0.00,Wunderground v.1.15,2013-02-04 01:17:00,
2013-02-03 20:19:00,27.1,22.9,30.26,WNW,302,0.0,9.0,84,0.00,,,0.00,Wunderground v.1.15,2013-02-04 01:19:00,
2013-02-03 20:21:00,27.1,23.2,30.26,WNW,302,0.0,9.0,85,0.00,,,0.00,Wunderground v.1.15,2013-02-04 01:21:00,
2013-02-03 20:24:00,27.1,22.9,30.26,WNW,302,0.0,9.0,84,0.00,,,0.00,Wunderground v.1.15,2013-02-04 01:24:00,
2013-02-03 20:25:00,27.1,22.9,30.26,WNW,302,0.0,9.0,84,0.00,,,0.00,Wunderground v.1.15,2013-02-04 01:25:00,
2013-02-03 20:26:00,27.1,22.9,30.26,WNW,302,0.0,9.0,84,0.00,,,0.00,Wunderground v.1.15,2013-02-04 01:26:00,
2013-02-03 20:29:00,27.1,22.9,30.27,WNW,302,0.0,9.0,84,0.00,,,0.00,Wunderground v.1.15,2013-02-04 01:29:00,
2013-02-03 20:31:00,27.1,22.9,30.26,WNW,302,0.0,9.0,84,0.00,,,0.00,Wunderground v.1.15,2013-02-04 01:31:00,
2013-02-03 20:32:00,27.1,22.9,30.27,WNW,302,0.0,9.0,84,0.00,,,0.00,Wunderground v.1.15,2013-02-04 01:32:00,
2013-02-03 20:35:00,27.2,23.0,30.27,WNW,302,0.0,9.0,84,0.00,,,0.00,Wunderground v.1.15,2013-02-04 01:35:00,
2013-02-03 20:37:00,27.1,22.9,30.27,WNW,302,0.0,9.0,84,0.00,,,0.00,Wunderground v.1.15,2013-02-04 01:37:00,
2013-02-03 20:38:00,27.1,22.9,30.27,NW,304,0.0,9.0,84,0.00,,,0.00,Wunderground v.1.15,2013-02-04 01:38:00,
2013-02-03 20:40:00,27.2,23.0,30.27,NW,304,1.0,9.0,84,0.00,,,0.00,Wunderground v.1.15,2013-02-04 01:40:00,
2013-02-03 20:43:00,27.2,23.0,30.27,NW,305,1.0,9.0,84,0.00,,,0.00,Wunderground v.1.15,2013-02-04 01:43:00,
2013-02-03 20:44:00,27.2,23.0,30.27,NW,305,1.0,9.0,84,0.00,,,0.00,Wunderground v.1.15,2013-02-04 01:44:00,
2013-02-03 20:45:00,27.2,23.0,30.27,NW,305,1.0,9.0,84,0.00,,,0.00,Wunderground v.1.15,2013-02-04 01:45:00,
2013-02-03 20:46:00,27.2,23.0,30.27,NW,305,1.0,9.0,84,0.00,,,0.00,Wunderground v.1.15,2013-02-04 01:46:00,
2013-02-03 20:49:00,27.2,23.0,30.27,NW,305,1.0,9.0,84,0.00,,,0.00,Wunderground v.1.15,2013-02-04 01:49:00,
2013-02-03 20:52:00,27.2,23.0,30.27,NW,305,0.0,9.0,84,0.00,,,0.00,Wunderground v.1.15,2013-02-04 01:52:00,
2013-02-03 20:53:00,27.1,22.9,30.27,NW,305,0.0,9.0,84,0.00,,,0.00,Wunderground v.1.15,2013-02-04 01:53:00,
2013-02-03 20:56:00,27.1,22.9,30.27,NW,305,0.0,9.0,84,0.00,,,0.00,Wunderground v.1.15,2013-02-04 01:56:00,
2013-02-03 21:01:00,27.1,22.9,30.27,NW,305,0.0,9.0,84,0.00,,,0.00,Wunderground v.1.15,2013-02-04 02:01:00,
2013-02-03 21:02:00,27.1,22.9,30.27,NW,305,0.0,9.0,84,0.00,,,0.00,Wunderground v.1.15,2013-02-04 02:02:00,
2013-02-03 21:04:00,27.1,22.9,30.27,NW,305,0.0,9.0,84,0.00,,,0.00,Wunderground v.1.15,2013-02-04 02:04:00,
2013-02-03 21:07:00,27.0,22.8,30.27,NW,305,0.0,9.0,84,0.00,,,0.00,Wunderground v.1.15,2013-02-04 02:07:00,
2013-02-03 21:08:00,27.0,22.8,30.27,NW,305,0.0,9.0,84,0.00,,,0.00,Wunderground v.1.15,2013-02-04 02:08:00,
2013-02-03 21:10:00,27.0,22.8,30.27,NW,305,0.0,9.0,84,0.00,,,0.00,Wunderground v.1.15,2013-02-04 02:10:00,
2013-02-03 21:15:00,27.0,22.8,30.27,NW,305,0.0,9.0,84,0.00,,,0.00,Wunderground v.1.15,2013-02-04 02:15:00,
2013-02-03 21:17:00,27.0,22.8,30.27,NW,305,0.0,9.0,84,0.00,,,0.00,Wunderground v.1.15,2013-02-04 02:17:00,
2013-02-03 21:18:00,27.0,22.8,30.27,NW,305,0.0,9.0,84,0.00,,,0.00,Wunderground v.1.15,2013-02-04 02:18:00,
2013-02-03 21:23:00,26.9,22.7,30.27,NW,305,0.0,9.0,84,0.00,,,0.00,Wunderground v.1.15,2013-02-04 02:23:00,
2013-02-03 21:24:00,26.9,22.7,30.27,NW,305,0.0,9.0,84,0.00,,,0.00,Wunderground v.1.15,2013-02-04 02:24:00,
2013-02-03 21:26:00,26.9,22.7,30.27,NW,305,1.0,9.0,84,0.00,,,0.00,Wunderground v.1.15,2013-02-04 02:26:00,
2013-02-03 21:29:00,26.9,22.7,30.27,NW,305,1.0,9.0,84,0.00,,,0.00,Wunderground v.1.15,2013-02-04 02:29:00,
2013-02-03 21:30:00,26.9,22.7,30.27,NW,305,1.0,9.0,84,0.00,,,0.00,Wunderground v.1.15,2013-02-04 02:30:00,
2013-02-03 21:31:00,26.9,22.7,30.27,NW,305,1.0,1.0,84,0.00,,,0.00,Wunderground v.1.15,2013-02-04 02:31:00,
2013-02-03 21:35:00,26.9,22.7,30.27,NW,305,0.0,9.0,84,0.00,,,0.00,Wunderground v.1.15,2013-02-04 02:35:00,
2013-02-03 21:36:00,26.9,22.7,30.27,NW,306,0.0,9.0,84,0.00,,,0.00,Wunderground v.1.15,2013-02-04 02:36:00,
2013-02-03 21:39:00,26.9,22.7,30.27,NW,306,1.0,9.0,84,0.00,,,0.00,Wunderground v.1.15,2013-02-04 02:39:00,
2013-02-03 21:44:00,26.8,22.6,30.27,NW,306,1.0,9.0,84,0.00,,,0.00,Wunderground v.1.15,2013-02-04 02:44:00,
2013-02-03 21:45:00,26.8,22.6,30.27,NW,306,0.0,9.0,84,0.00,,,0.00,Wunderground v.1.15,2013-02-04 02:45:00,
2013-02-03 21:46:00,26.8,22.6,30.27,NW,306,0.0,9.0,84,0.00,,,0.00,Wunderground v.1.15,2013-02-04 02:46:00,
2013-02-03 21:49:00,26.7,22.5,30.27,NW,306,0.0,9.0,84,0.00,,,0.00,Wunderground v.1.15,2013-02-04 02:49:00,
2013-02-03 21:52:00,26.7,22.5,30.27,NW,306,0.0,9.0,84,0.00,,,0.00,Wunderground v.1.15,2013-02-04 02:52:00,
2013-02-03 21:53:00,26.7,22.5,30.27,NW,306,0.0,9.0,84,0.00,,,0.00,Wunderground v.1.15,2013-02-04 02:53:00,
2013-02-03 21:54:00,26.6,22.4,30.27,NW,306,0.0,9.0,84,0.00,,,0.00,Wunderground v.1.15,2013-02-04 02:54:00,
2013-02-03 21:58:00,26.6,22.4,30.28,NW,306,0.0,9.0,84,0.00,,,0.00,Wunderground v.1.15,2013-02-04 02:58:00,
2013-02-03 21:59:00,26.6,22.4,30.28,NW,306,0.0,9.0,84,0.00,,,0.00,Wunderground v.1.15,2013-02-04 02:59:00,
2013-02-03 22:01:00,26.6,22.4,30.28,NW,306,0.0,9.0,84,0.00,,,0.00,Wunderground v.1.15,2013-02-04 03:01:00,
2013-02-03 22:04:00,26.6,22.4,30.28,NW,306,0.0,9.0,84,0.00,,,0.00,Wunderground v.1.15,2013-02-04 03:04:00,
2013-02-03 22:06:00,26.5,22.3,30.28,NW,306,0.0,9.0,84,0.00,,,0.00,Wunderground v.1.15,2013-02-04 03:06:00,
2013-02-03 22:07:00,26.5,22.3,30.28,NW,306,0.0,9.0,84,0.00,,,0.00,Wunderground v.1.15,2013-02-04 03:07:00,
2013-02-03 22:09:00,26.5,22.3,30.28,NW,306,0.0,9.0,84,0.00,,,0.00,Wunderground v.1.15,2013-02-04 03:09:00,
2013-02-03 22:11:00,26.5,22.3,30.28,NW,306,0.0,9.0,84,0.00,,,0.00,Wunderground v.1.15,2013-02-04 03:11:00,
2013-02-03 22:13:00,26.4,22.2,30.28,NW,306,0.0,9.0,84,0.00,,,0.00,Wunderground v.1.15,2013-02-04 03:13:00,
2013-02-03 22:16:00,26.3,22.1,30.28,NW,306,0.0,9.0,84,0.00,,,0.00,Wunderground v.1.15,2013-02-04 03:16:00,
2013-02-03 22:18:00,26.3,22.1,30.28,NW,306,0.0,9.0,84,0.00,,,0.00,Wunderground v.1.15,2013-02-04 03:18:00,
2013-02-03 22:19:00,26.3,22.1,30.28,NW,306,0.0,9.0,84,0.00,,,0.00,Wunderground v.1.15,2013-02-04 03:19:00,
2013-02-03 22:20:00,26.2,22.0,30.27,NW,306,0.0,9.0,84,0.00,,,0.00,Wunderground v.1.15,2013-02-04 03:20:00,
2013-02-03 22:25:00,26.1,21.9,30.28,NW,306,0.0,9.0,84,0.00,,,0.00,Wunderground v.1.15,2013-02-04 03:25:00,
2013-02-03 22:26:00,26.1,21.9,30.28,NW,306,0.0,9.0,84,0.00,,,0.00,Wunderground v.1.15,2013-02-04 03:26:00,
2013-02-03 22:27:00,26.1,21.9,30.28,NW,306,0.0,9.0,84,0.00,,,0.00,Wunderground v.1.15,2013-02-04 03:27:00,
2013-02-03 22:30:00,26.0,21.8,30.28,NW,306,0.0,9.0,84,0.00,,,0.00,Wunderground v.1.15,2013-02-04 03:30:00,
2013-02-03 22:32:00,26.0,22.1,30.28,NW,306,0.0,9.0,85,0.00,,,0.00,Wunderground v.1.15,2013-02-04 03:32:00,
2013-02-03 22:33:00,26.0,21.8,30.28,NW,306,0.0,9.0,84,0.00,,,0.00,Wunderground v.1.15,2013-02-04 03:33:00,
2013-02-03 22:36:00,26.0,21.8,30.27,NW,306,0.0,9.0,84,0.00,,,0.00,Wunderground v.1.15,2013-02-04 03:36:00,
2013-02-03 22:39:00,25.9,22.0,30.27,NW,306,0.0,9.0,85,0.00,,,0.00,Wunderground v.1.15,2013-02-04 03:39:00,
2013-02-03 22:40:00,25.9,22.0,30.27,NW,306,0.0,9.0,85,0.00,,,0.00,Wunderground v.1.15,2013-02-04 03:40:00,
2013-02-03 22:42:00,25.8,21.9,30.27,NW,306,0.0,9.0,85,0.00,,,0.00,Wunderground v.1.15,2013-02-04 03:42:00,
2013-02-03 22:45:00,25.7,21.8,30.27,NW,306,0.0,9.0,85,0.00,,,0.00,Wunderground v.1.15,2013-02-04 03:45:00,
2013-02-03 22:47:00,25.6,21.7,30.27,NW,306,0.0,9.0,85,0.00,,,0.00,Wunderground v.1.15,2013-02-04 03:47:00,
2013-02-03 22:48:00,25.6,21.7,30.27,NW,306,0.0,9.0,85,0.00,,,0.00,Wunderground v.1.15,2013-02-04 03:48:00,
2013-02-03 22:49:00,25.6,21.7,30.27,NW,306,0.0,9.0,85,0.00,,,0.00,Wunderground v.1.15,2013-02-04 03:49:00,
2013-02-03 22:52:00,25.5,21.6,30.27,NW,306,0.0,9.0,85,0.00,,,0.00,Wunderground v.1.15,2013-02-04 03:52:00,
2013-02-03 22:55:00,25.5,21.6,30.27,NW,306,0.0,9.0,85,0.00,,,0.00,Wunderground v.1.15,2013-02-04 03:55:00,
2013-02-03 22:56:00,25.4,21.5,30.27,NW,306,0.0,9.0,85,0.00,,,0.00,Wunderground v.1.15,2013-02-04 03:56:00,
2013-02-03 22:57:00,25.4,21.5,30.27,NW,306,0.0,9.0,85,0.00,,,0.00,Wunderground v.1.15,2013-02-04 03:57:00,
2013-02-03 23:01:00,25.4,21.5,30.27,NW,306,0.0,9.0,85,0.00,,,0.00,Wunderground v.1.15,2013-02-04 04:01:00,
2013-02-03 23:04:00,25.3,21.7,30.27,NW,306,0.0,9.0,86,0.00,,,0.00,Wunderground v.1.15,2013-02-04 04:04:00,
2013-02-03 23:05:00,25.3,21.7,30.27,NW,306,0.0,9.0,86,0.00,,,0.00,Wunderground v.1.15,2013-02-04 04:05:00,
2013-02-03 23:09:00,25.3,21.7,30.27,NW,306,0.0,9.0,86,0.00,,,0.00,Wunderground v.1.15,2013-02-04 04:09:00,
2013-02-03 23:11:00,25.2,21.6,30.27,NW,306,0.0,9.0,86,0.00,,,0.00,Wunderground v.1.15,2013-02-04 04:11:00,
2013-02-03 23:12:00,25.2,21.6,30.27,NW,306,0.0,9.0,86,0.00,,,0.00,Wunderground v.1.15,2013-02-04 04:12:00,
2013-02-03 23:16:00,25.1,21.5,30.27,NW,306,0.0,9.0,86,0.00,,,0.00,Wunderground v.1.15,2013-02-04 04:16:00,
2013-02-03 23:17:00,25.1,21.5,30.26,NW,306,0.0,9.0,86,0.00,,,0.00,Wunderground v.1.15,2013-02-04 04:17:00,
2013-02-03 23:18:00,25.0,21.4,30.26,NW,306,0.0,9.0,86,0.00,,,0.00,Wunderground v.1.15,2013-02-04 04:18:00,
2013-02-03 23:21:00,25.0,21.4,30.26,NW,305,0.0,9.0,86,0.00,,,0.00,Wunderground v.1.15,2013-02-04 04:21:00,
2013-02-03 23:22:00,25.0,21.4,30.26,NW,305,0.0,9.0,86,0.00,,,0.00,Wunderground v.1.15,2013-02-04 04:22:00,
2013-02-03 23:26:00,24.9,21.3,30.26,NW,305,0.0,9.0,86,0.00,,,0.00,Wunderground v.1.15,2013-02-04 04:26:00,
2013-02-03 23:28:00,24.8,21.2,30.26,NW,305,0.0,9.0,86,0.00,,,0.00,Wunderground v.1.15,2013-02-04 04:28:00,
2013-02-03 23:31:00,24.8,21.2,30.26,NW,305,0.0,9.0,86,0.00,,,0.00,Wunderground v.1.15,2013-02-04 04:31:00,
2013-02-03 23:32:00,24.7,21.4,30.26,NW,305,0.0,9.0,87,0.00,,,0.00,Wunderground v.1.15,2013-02-04 04:32:00,
2013-02-03 23:33:00,24.7,21.4,30.26,NW,305,0.0,9.0,87,0.00,,,0.00,Wunderground v.1.15,2013-02-04 04:33:00,
2013-02-03 23:39:00,24.7,21.4,30.26,NW,304,0.0,9.0,87,0.00,,,0.00,Wunderground v.1.15,2013-02-04 04:39:00,
2013-02-03 23:41:00,24.7,21.4,30.26,NW,304,1.0,9.0,87,0.00,,,0.00,Wunderground v.1.15,2013-02-04 04:41:00,
2013-02-03 23:42:00,24.6,21.3,30.26,NW,304,1.0,9.0,87,0.00,,,0.00,Wunderground v.1.15,2013-02-04 04:42:00,
2013-02-03 23:44:00,24.6,21.3,30.26,NW,304,1.0,9.0,87,0.00,,,0.00,Wunderground v.1.15,2013-02-04 04:44:00,
2013-02-03 23:46:00,24.5,21.2,30.26,NW,304,1.0,9.0,87,0.00,,,0.00,Wunderground v.1.15,2013-02-04 04:46:00,
2013-02-03 23:48:00,24.5,21.2,30.26,NW,304,0.0,9.0,87,0.00,,,0.00,Wunderground v.1.15,2013-02-04 04:48:00,
2013-02-03 23:49:00,24.5,21.2,30.26,NW,304,0.0,9.0,87,0.00,,,0.00,Wunderground v.1.15,2013-02-04 04:49:00,
2013-02-03 23:51:00,24.4,21.1,30.26,NW,304,0.0,9.0,87,0.00,,,0.00,Wunderground v.1.15,2013-02-04 04:51:00,
2013-02-03 23:53:00,24.4,21.1,30.26,NW,304,0.0,9.0,87,0.00,,,0.00,Wunderground v.1.15,2013-02-04 04:53:00,
2013-02-03 23:56:00,24.3,21.0,30.26,NW,304,0.0,9.0,87,0.00,,,0.00,Wunderground v.1.15,2013-02-04 04:56:00,
2013-02-03 23:57:00,24.3,21.0,30.27,NW,304,0.0,9.0,87,0.00,,,0.00,Wunderground v.1.15,2013-02-04 04:57:00,